Time,TemperatureF,DewpointF,PressureIn,WindDirection,WindDirectionDegrees,WindSpeedMPH,WindSpeedGustMPH,Humidity,HourlyPrecipIn,Conditions,Clouds,dailyrainin,SoftwareType,DateUTC
2013-08-27 00:00:00,68.2,63.5,30.08,WSW,251,0.0,4.0,85,0.00,,---,0.00,VWS V13.01,2013-08-27 04:00:00,
2013-08-27 00:01:00,68.2,63.5,30.08,WSW,251,0.0,4.0,85,0.00,,---,0.00,VWS V13.01,2013-08-27 04:01:00,
2013-08-27 00:06:00,68.1,63.4,30.07,WSW,248,0.0,2.0,85,0.00,,---,0.00,VWS V13.01,2013-08-27 04:06:00,
2013-08-27 00:11:00,68.2,63.5,30.07,WSW,247,0.0,2.0,85,0.00,,---,0.00,VWS V13.01,2013-08-27 04:11:00,
2013-08-27 00:16:00,68.2,63.2,30.07,WSW,245,0.0,3.0,84,0.00,,---,0.00,VWS V13.01,2013-08-27 04:16:00,
2013-08-27 00:17:00,68.2,63.2,30.07,WSW,245,0.0,3.0,84,0.00,,---,0.00,VWS V13.01,2013-08-27 04:17:00,
2013-08-27 00:21:00,68.1,63.4,30.07,WSW,245,0.0,3.0,85,0.00,,---,0.00,VWS V13.01,2013-08-27 04:21:00,
2013-08-27 00:22:00,68.0,63.3,30.07,WSW,245,0.0,3.0,85,0.00,,---,0.00,VWS V13.01,2013-08-27 04:22:00,
2013-08-27 00:26:00,68.0,63.3,30.07,WSW,242,0.0,3.0,85,0.00,,---,0.00,VWS V13.01,2013-08-27 04:26:00,
2013-08-27 00:27:00,68.0,63.3,30.07,WSW,243,0.0,3.0,85,0.00,,---,0.00,VWS V13.01,2013-08-27 04:27:00,
2013-08-27 00:31:00,68.1,63.1,30.07,WSW,242,0.0,3.0,84,0.00,,---,0.00,VWS V13.01,2013-08-27 04:31:00,
2013-08-27 00:32:00,68.1,63.1,30.07,WSW,242,0.0,0.0,84,0.00,,---,0.00,VWS V13.01,2013-08-27 04:32:00,
2013-08-27 00:36:00,68.1,63.1,30.07,WSW,241,0.0,4.0,84,0.00,,---,0.00,VWS V13.01,2013-08-27 04:36:00,
2013-08-27 00:37:00,68.1,63.1,30.07,WSW,237,0.0,4.0,84,0.00,,---,0.00,VWS V13.01,2013-08-27 04:37:00,
2013-08-27 00:41:00,68.2,63.2,30.07,WSW,237,0.0,4.0,84,0.00,,---,0.00,VWS V13.01,2013-08-27 04:41:00,
2013-08-27 00:42:00,68.1,63.1,30.07,SW,236,0.0,4.0,84,0.00,,---,0.00,VWS V13.01,2013-08-27 04:42:00,
2013-08-27 00:46:00,68.0,63.0,30.07,SW,236,0.0,4.0,84,0.00,,---,0.00,VWS V13.01,2013-08-27 04:46:00,
2013-08-27 00:47:00,68.0,63.0,30.07,SW,236,0.0,4.0,84,0.00,,---,0.00,VWS V13.01,2013-08-27 04:47:00,
2013-08-27 00:51:00,67.9,62.9,30.07,WSW,245,0.0,4.0,84,0.00,,---,0.00,VWS V13.01,2013-08-27 04:51:00,
2013-08-27 00:52:00,67.9,62.9,30.07,WSW,246,0.0,4.0,84,0.00,,---,0.00,VWS V13.01,2013-08-27 04:52:00,
2013-08-27 00:53:00,67.8,63.1,30.07,WSW,245,0.0,4.0,85,0.00,,---,0.00,VWS V13.01,2013-08-27 04:53:00,
2013-08-27 00:56:00,67.7,63.0,30.07,WSW,245,0.0,4.0,85,0.00,,---,0.00,VWS V13.01,2013-08-27 04:56:00,
2013-08-27 00:57:00,67.7,63.0,30.06,WSW,245,0.0,4.0,85,0.00,,---,0.00,VWS V13.01,2013-08-27 04:57:00,
2013-08-27 00:58:00,67.7,63.0,30.06,WSW,245,0.0,4.0,85,0.00,,---,0.00,VWS V13.01,2013-08-27 04:58:00,
2013-08-27 01:02:00,67.7,63.0,30.06,WSW,245,0.0,0.0,85,0.00,,---,0.00,VWS V13.01,2013-08-27 05:02:00,
2013-08-27 01:03:00,67.6,62.9,30.06,WSW,245,0.0,0.0,85,0.00,,---,0.00,VWS V13.01,2013-08-27 05:03:00,
2013-08-27 01:07:00,67.7,62.7,30.06,WSW,244,0.0,3.0,84,0.00,,---,0.00,VWS V13.01,2013-08-27 05:07:00,
2013-08-27 01:08:00,67.7,62.7,30.06,WSW,244,1.0,3.0,84,0.00,,---,0.00,VWS V13.01,2013-08-27 05:08:00,
2013-08-27 01:12:00,67.5,62.8,30.06,WSW,244,0.0,3.0,85,0.00,,---,0.00,VWS V13.01,2013-08-27 05:12:00,
2013-08-27 01:13:00,67.5,62.5,30.06,SW,236,3.0,3.0,84,0.00,,---,0.00,VWS V13.01,2013-08-27 05:13:00,
2013-08-27 01:17:00,67.6,62.6,30.06,SW,236,0.0,3.0,84,0.00,,---,0.00,VWS V13.01,2013-08-27 05:17:00,
2013-08-27 01:18:00,67.6,62.6,30.06,SW,236,0.0,3.0,84,0.00,,---,0.00,VWS V13.01,2013-08-27 05:18:00,
2013-08-27 01:19:00,67.5,62.5,30.06,SW,236,0.0,3.0,84,0.00,,---,0.00,VWS V13.01,2013-08-27 05:19:00,
2013-08-27 01:22:00,67.4,62.4,30.05,SW,234,1.0,4.0,84,0.00,,---,0.00,VWS V13.01,2013-08-27 05:22:00,
2013-08-27 01:23:00,67.4,62.4,30.05,SW,233,0.0,4.0,84,0.00,,---,0.00,VWS V13.01,2013-08-27 05:23:00,
2013-08-27 01:24:00,67.4,62.4,30.05,SW,233,0.0,4.0,84,0.00,,---,0.00,VWS V13.01,2013-08-27 05:24:00,
2013-08-27 01:27:00,67.3,62.3,30.05,SW,234,0.0,4.0,84,0.00,,---,0.00,VWS V13.01,2013-08-27 05:27:00,
2013-08-27 01:28:00,67.2,62.2,30.05,SW,234,0.0,4.0,84,0.00,,---,0.00,VWS V13.01,2013-08-27 05:28:00,
2013-08-27 01:29:00,67.2,62.5,30.05,SW,233,0.0,4.0,85,0.00,,---,0.00,VWS V13.01,2013-08-27 05:29:00,
2013-08-27 01:32:00,67.2,62.2,30.05,SW,233,0.0,0.0,84,0.00,,---,0.00,VWS V13.01,2013-08-27 05:32:00,
2013-08-27 01:33:00,67.2,62.5,30.05,SW,233,0.0,0.0,85,0.00,,---,0.00,VWS V13.01,2013-08-27 05:33:00,
2013-08-27 01:34:00,67.1,62.5,30.05,SW,234,0.0,1.0,85,0.00,,---,0.00,VWS V13.01,2013-08-27 05:34:00,
2013-08-27 01:37:00,67.1,62.5,30.05,SW,234,0.0,2.0,85,0.00,,---,0.00,VWS V13.01,2013-08-27 05:37:00,
2013-08-27 01:38:00,67.1,62.1,30.05,SW,234,0.0,2.0,84,0.00,,---,0.00,VWS V13.01,2013-08-27 05:38:00,
2013-08-27 01:39:00,67.2,62.2,30.05,SW,232,2.0,2.0,84,0.00,,---,0.00,VWS V13.01,2013-08-27 05:39:00,
2013-08-27 01:42:00,67.4,62.4,30.05,SW,227,2.0,6.0,84,0.00,,---,0.00,VWS V13.01,2013-08-27 05:42:00,
2013-08-27 01:43:00,67.4,62.4,30.05,SW,227,1.0,6.0,84,0.00,,---,0.00,VWS V13.01,2013-08-27 05:43:00,
2013-08-27 01:44:00,67.5,62.2,30.05,SW,236,0.0,6.0,83,0.00,,---,0.00,VWS V13.01,2013-08-27 05:44:00,
2013-08-27 01:47:00,67.6,62.3,30.05,SW,234,0.0,6.0,83,0.00,,---,0.00,VWS V13.01,2013-08-27 05:47:00,
2013-08-27 01:48:00,67.6,62.3,30.05,SW,235,0.0,6.0,83,0.00,,---,0.00,VWS V13.01,2013-08-27 05:48:00,
2013-08-27 01:49:00,67.6,62.3,30.05,SW,235,0.0,6.0,83,0.00,,---,0.00,VWS V13.01,2013-08-27 05:49:00,
2013-08-27 01:52:00,67.4,62.4,30.05,SW,235,0.0,6.0,84,0.00,,---,0.00,VWS V13.01,2013-08-27 05:52:00,
2013-08-27 01:53:00,67.4,62.4,30.05,SW,235,0.0,6.0,84,0.00,,---,0.00,VWS V13.01,2013-08-27 05:53:00,
2013-08-27 01:54:00,67.3,62.0,30.05,SW,235,0.0,6.0,83,0.00,,---,0.00,VWS V13.01,2013-08-27 05:54:00,
2013-08-27 01:55:00,67.3,62.0,30.05,SW,235,0.0,6.0,83,0.00,,---,0.00,VWS V13.01,2013-08-27 05:55:00,
2013-08-27 01:58:00,67.1,62.1,30.04,SW,235,1.0,6.0,84,0.00,,---,0.00,VWS V13.01,2013-08-27 05:58:00,
2013-08-27 02:00:00,67.0,62.0,30.04,SW,233,0.0,6.0,84,0.00,,---,0.00,VWS V13.01,2013-08-27 06:00:00,
2013-08-27 02:03:00,67.1,62.1,30.04,SW,230,0.0,0.0,84,0.00,,---,0.00,VWS V13.01,2013-08-27 06:03:00,
2013-08-27 02:05:00,67.1,62.1,30.04,SW,231,0.0,1.0,84,0.00,,---,0.00,VWS V13.01,2013-08-27 06:05:00,
2013-08-27 02:08:00,67.0,62.0,30.04,SW,231,0.0,1.0,84,0.00,,---,0.00,VWS V13.01,2013-08-27 06:08:00,
2013-08-27 02:10:00,67.0,62.0,30.04,SW,231,0.0,1.0,84,0.00,,---,0.00,VWS V13.01,2013-08-27 06:10:00,
2013-08-27 02:13:00,67.0,62.0,30.04,SW,232,0.0,3.0,84,0.00,,---,0.00,VWS V13.01,2013-08-27 06:13:00,
2013-08-27 02:14:00,66.9,61.9,30.04,SW,232,0.0,3.0,84,0.00,,---,0.00,VWS V13.01,2013-08-27 06:14:00,
2013-08-27 02:15:00,66.9,61.9,30.04,SW,232,0.0,3.0,84,0.00,,---,0.00,VWS V13.01,2013-08-27 06:15:00,
2013-08-27 02:18:00,67.0,62.0,30.03,SW,227,0.0,4.0,84,0.00,,---,0.00,VWS V13.01,2013-08-27 06:18:00,
2013-08-27 02:19:00,67.0,62.0,30.03,SW,227,0.0,4.0,84,0.00,,---,0.00,VWS V13.01,2013-08-27 06:19:00,
2013-08-27 02:20:00,67.0,62.0,30.04,SW,227,0.0,4.0,84,0.00,,---,0.00,VWS V13.01,2013-08-27 06:20:00,
2013-08-27 02:21:00,67.1,62.1,30.04,SW,228,0.0,4.0,84,0.00,,---,0.00,VWS V13.01,2013-08-27 06:21:00,
2013-08-27 02:23:00,67.0,62.0,30.03,SW,228,5.0,6.0,84,0.00,,---,0.00,VWS V13.01,2013-08-27 06:23:00,
2013-08-27 02:24:00,67.0,62.0,30.03,SW,229,1.0,6.0,84,0.00,,---,0.00,VWS V13.01,2013-08-27 06:24:00,
2013-08-27 02:25:00,67.0,62.0,30.03,SW,227,0.0,6.0,84,0.00,,---,0.00,VWS V13.01,2013-08-27 06:25:00,
2013-08-27 02:26:00,67.0,62.0,30.03,SW,227,0.0,6.0,84,0.00,,---,0.00,VWS V13.01,2013-08-27 06:26:00,
2013-08-27 02:28:00,67.0,62.0,30.03,SW,227,0.0,6.0,84,0.00,,---,0.00,VWS V13.01,2013-08-27 06:28:00,
2013-08-27 02:29:00,67.0,62.0,30.03,SW,227,0.0,6.0,84,0.00,,---,0.00,VWS V13.01,2013-08-27 06:29:00,
2013-08-27 02:30:00,67.0,62.0,30.03,SW,227,0.0,6.0,84,0.00,,---,0.00,VWS V13.01,2013-08-27 06:30:00,
2013-08-27 02:31:00,67.0,62.0,30.03,SW,226,0.0,6.0,84,0.00,,---,0.00,VWS V13.01,2013-08-27 06:31:00,
2013-08-27 02:34:00,66.8,61.8,30.03,SW,227,0.0,2.0,84,0.00,,---,0.00,VWS V13.01,2013-08-27 06:34:00,
2013-08-27 02:35:00,66.8,62.2,30.03,SW,226,0.0,2.0,85,0.00,,---,0.00,VWS V13.01,2013-08-27 06:35:00,
2013-08-27 02:36:00,66.8,62.2,30.03,SW,226,0.0,2.0,85,0.00,,---,0.00,VWS V13.01,2013-08-27 06:36:00,
2013-08-27 02:39:00,66.7,62.0,30.04,SW,227,0.0,2.0,85,0.00,,---,0.00,VWS V13.01,2013-08-27 06:39:00,
2013-08-27 02:40:00,66.7,62.0,30.03,SW,227,0.0,2.0,85,0.00,,---,0.00,VWS V13.01,2013-08-27 06:40:00,
2013-08-27 02:41:00,66.7,62.0,30.03,SW,226,0.0,2.0,85,0.00,,---,0.00,VWS V13.01,2013-08-27 06:41:00,
2013-08-27 02:44:00,66.6,62.0,30.03,SW,228,0.0,3.0,85,0.00,,---,0.00,VWS V13.01,2013-08-27 06:44:00,
2013-08-27 02:45:00,66.6,62.0,30.03,SW,228,0.0,3.0,85,0.00,,---,0.00,VWS V13.01,2013-08-27 06:45:00,
2013-08-27 02:46:00,66.7,62.0,30.03,SW,228,0.0,3.0,85,0.00,,---,0.00,VWS V13.01,2013-08-27 06:46:00,
2013-08-27 02:49:00,66.7,62.0,30.03,SW,228,0.0,3.0,85,0.00,,---,0.00,VWS V13.01,2013-08-27 06:49:00,
2013-08-27 02:50:00,66.7,62.0,30.03,SW,228,0.0,3.0,85,0.00,,---,0.00,VWS V13.01,2013-08-27 06:50:00,
2013-08-27 02:51:00,66.6,62.0,30.03,SW,226,0.0,4.0,85,0.00,,---,0.00,VWS V13.01,2013-08-27 06:51:00,
2013-08-27 02:54:00,66.5,61.9,30.03,SW,227,0.0,4.0,85,0.00,,---,0.00,VWS V13.01,2013-08-27 06:54:00,
2013-08-27 02:55:00,66.5,62.2,30.03,SW,227,0.0,4.0,86,0.00,,---,0.00,VWS V13.01,2013-08-27 06:55:00,
2013-08-27 02:56:00,66.5,62.2,30.03,SW,227,0.0,4.0,86,0.00,,---,0.00,VWS V13.01,2013-08-27 06:56:00,
2013-08-27 02:59:00,66.5,62.2,30.03,SW,227,0.0,4.0,86,0.00,,---,0.00,VWS V13.01,2013-08-27 06:59:00,
2013-08-27 03:00:00,66.4,62.1,30.03,SW,227,0.0,4.0,86,0.00,,---,0.00,VWS V13.01,2013-08-27 07:00:00,
2013-08-27 03:01:00,66.4,62.1,30.03,SW,227,0.0,4.0,86,0.00,,---,0.00,VWS V13.01,2013-08-27 07:01:00,
2013-08-27 03:04:00,66.2,61.9,30.03,SW,227,0.0,0.0,86,0.00,,---,0.00,VWS V13.01,2013-08-27 07:04:00,
2013-08-27 03:05:00,66.2,61.9,30.03,SW,227,0.0,0.0,86,0.00,,---,0.00,VWS V13.01,2013-08-27 07:05:00,
2013-08-27 03:06:00,66.0,61.7,30.03,SW,227,0.0,0.0,86,0.00,,---,0.00,VWS V13.01,2013-08-27 07:06:00,
2013-08-27 03:10:00,66.0,62.0,30.03,SW,227,0.0,0.0,87,0.00,,---,0.00,VWS V13.01,2013-08-27 07:10:00,
2013-08-27 03:11:00,66.0,62.0,30.03,SW,227,0.0,1.0,87,0.00,,---,0.00,VWS V13.01,2013-08-27 07:11:00,
2013-08-27 03:15:00,66.0,62.0,30.03,SW,227,0.0,1.0,87,0.00,,---,0.00,VWS V13.01,2013-08-27 07:15:00,
2013-08-27 03:16:00,66.1,62.1,30.03,SW,227,0.0,1.0,87,0.00,,---,0.00,VWS V13.01,2013-08-27 07:16:00,
2013-08-27 03:17:00,66.1,62.1,30.03,SW,227,0.0,1.0,87,0.00,,---,0.00,VWS V13.01,2013-08-27 07:17:00,
2013-08-27 03:20:00,66.0,62.0,30.03,SW,227,0.0,1.0,87,0.00,,---,0.00,VWS V13.01,2013-08-27 07:20:00,
2013-08-27 03:21:00,66.0,62.0,30.03,SW,227,0.0,1.0,87,0.00,,---,0.00,VWS V13.01,2013-08-27 07:21:00,
2013-08-27 03:22:00,65.9,61.9,30.03,SW,227,0.0,1.0,87,0.00,,---,0.00,VWS V13.01,2013-08-27 07:22:00,
2013-08-27 03:25:00,65.9,62.2,30.02,SW,227,1.0,2.0,88,0.00,,---,0.00,VWS V13.01,2013-08-27 07:25:00,
2013-08-27 03:26:00,65.9,62.2,30.02,SW,227,0.0,2.0,88,0.00,,---,0.00,VWS V13.01,2013-08-27 07:26:00,
2013-08-27 03:27:00,65.9,62.2,30.02,SW,227,0.0,2.0,88,0.00,,---,0.00,VWS V13.01,2013-08-27 07:27:00,
2013-08-27 03:30:00,65.9,62.2,30.02,SW,227,0.0,2.0,88,0.00,,---,0.00,VWS V13.01,2013-08-27 07:30:00,
2013-08-27 03:31:00,65.9,62.2,30.02,SW,227,0.0,2.0,88,0.00,,---,0.00,VWS V13.01,2013-08-27 07:31:00,
2013-08-27 03:32:00,65.9,62.2,30.02,SW,227,0.0,0.0,88,0.00,,---,0.00,VWS V13.01,2013-08-27 07:32:00,
2013-08-27 03:35:00,65.8,62.5,30.02,SW,227,0.0,1.0,89,0.00,,---,0.00,VWS V13.01,2013-08-27 07:35:00,
2013-08-27 03:36:00,65.9,62.6,30.02,SW,227,0.0,1.0,89,0.00,,---,0.00,VWS V13.01,2013-08-27 07:36:00,
2013-08-27 03:37:00,66.0,62.7,30.02,SW,227,0.0,1.0,89,0.00,,---,0.00,VWS V13.01,2013-08-27 07:37:00,
2013-08-27 03:40:00,66.1,62.8,30.02,SW,227,0.0,1.0,89,0.00,,---,0.00,VWS V13.01,2013-08-27 07:40:00,
2013-08-27 03:41:00,66.1,62.8,30.02,SW,227,0.0,1.0,89,0.00,,---,0.00,VWS V13.01,2013-08-27 07:41:00,
2013-08-27 03:42:00,66.1,62.8,30.02,SW,227,0.0,1.0,89,0.00,,---,0.00,VWS V13.01,2013-08-27 07:42:00,
2013-08-27 03:43:00,66.2,62.9,30.02,SW,227,0.0,1.0,89,0.00,,---,0.00,VWS V13.01,2013-08-27 07:43:00,
2013-08-27 03:45:00,66.3,63.0,30.02,SW,227,0.0,1.0,89,0.00,,---,0.00,VWS V13.01,2013-08-27 07:45:00,
2013-08-27 03:46:00,66.3,63.0,30.02,SW,227,0.0,1.0,89,0.00,,---,0.00,VWS V13.01,2013-08-27 07:46:00,
2013-08-27 03:47:00,66.2,62.9,30.02,SW,227,0.0,1.0,89,0.00,,---,0.00,VWS V13.01,2013-08-27 07:47:00,
2013-08-27 03:48:00,66.2,62.9,30.02,SW,227,0.0,1.0,89,0.00,,---,0.00,VWS V13.01,2013-08-27 07:48:00,
2013-08-27 03:50:00,66.1,62.8,30.02,SW,227,0.0,3.0,89,0.00,,---,0.00,VWS V13.01,2013-08-27 07:50:00,
2013-08-27 03:51:00,66.2,62.9,30.02,SW,227,0.0,3.0,89,0.00,,---,0.00,VWS V13.01,2013-08-27 07:51:00,
2013-08-27 03:52:00,66.3,63.0,30.02,SW,229,0.0,4.0,89,0.00,,---,0.00,VWS V13.01,2013-08-27 07:52:00,
2013-08-27 03:53:00,66.2,62.9,30.02,SW,229,0.0,4.0,89,0.00,,---,0.00,VWS V13.01,2013-08-27 07:53:00,
2013-08-27 03:55:00,66.3,63.0,30.02,SW,228,0.0,4.0,89,0.00,,---,0.00,VWS V13.01,2013-08-27 07:55:00,
2013-08-27 03:56:00,66.4,63.1,30.02,SW,227,0.0,4.0,89,0.00,,---,0.00,VWS V13.01,2013-08-27 07:56:00,
2013-08-27 03:58:00,66.4,63.1,30.02,SW,228,0.0,4.0,89,0.00,,---,0.00,VWS V13.01,2013-08-27 07:58:00,
2013-08-27 04:00:00,66.4,63.1,30.02,SW,233,0.0,4.0,89,0.00,,---,0.00,VWS V13.01,2013-08-27 08:00:00,
2013-08-27 04:01:00,66.4,63.4,30.02,SW,232,0.0,4.0,90,0.00,,---,0.00,VWS V13.01,2013-08-27 08:01:00,
2013-08-27 04:03:00,66.4,63.4,30.02,SW,234,0.0,3.0,90,0.00,,---,0.00,VWS V13.01,2013-08-27 08:03:00,
2013-08-27 04:04:00,66.5,63.5,30.02,SW,229,0.0,4.0,90,0.00,,---,0.00,VWS V13.01,2013-08-27 08:04:00,
2013-08-27 04:05:00,66.6,63.6,30.02,SW,229,0.0,4.0,90,0.00,,---,0.00,VWS V13.01,2013-08-27 08:05:00,
2013-08-27 04:06:00,66.6,63.3,30.01,SW,229,0.0,4.0,89,0.00,,---,0.00,VWS V13.01,2013-08-27 08:06:00,
2013-08-27 04:08:00,66.7,63.4,30.01,SW,229,0.0,6.0,89,0.00,,---,0.00,VWS V13.01,2013-08-27 08:08:00,
2013-08-27 04:09:00,66.7,63.4,30.01,SW,227,3.0,6.0,89,0.00,,---,0.00,VWS V13.01,2013-08-27 08:09:00,
2013-08-27 04:10:00,66.8,63.5,30.01,SW,227,0.0,6.0,89,0.00,,---,0.00,VWS V13.01,2013-08-27 08:10:00,
2013-08-27 04:11:00,66.8,63.5,30.01,SW,228,2.0,6.0,89,0.00,,---,0.00,VWS V13.01,2013-08-27 08:11:00,
2013-08-27 04:13:00,66.9,63.6,30.02,SW,229,0.0,6.0,89,0.00,,---,0.00,VWS V13.01,2013-08-27 08:13:00,
2013-08-27 04:14:00,66.9,63.6,30.02,SW,229,0.0,6.0,89,0.00,,---,0.00,VWS V13.01,2013-08-27 08:14:00,
2013-08-27 04:16:00,67.0,63.7,30.02,WSW,237,1.0,6.0,89,0.00,,---,0.00,VWS V13.01,2013-08-27 08:16:00,
2013-08-27 04:18:00,67.0,63.7,30.02,WSW,241,2.0,7.0,89,0.00,,---,0.00,VWS V13.01,2013-08-27 08:18:00,
2013-08-27 04:19:00,67.0,63.7,30.02,WSW,242,0.0,7.0,89,0.00,,---,0.00,VWS V13.01,2013-08-27 08:19:00,
2013-08-27 04:21:00,67.1,63.8,30.02,WSW,242,0.0,7.0,89,0.00,,---,0.00,VWS V13.01,2013-08-27 08:21:00,
2013-08-27 04:22:00,67.1,63.8,30.02,WSW,242,0.0,7.0,89,0.00,,---,0.00,VWS V13.01,2013-08-27 08:22:00,
2013-08-27 04:23:00,67.1,63.8,30.02,WSW,241,0.0,7.0,89,0.00,,---,0.00,VWS V13.01,2013-08-27 08:23:00,
2013-08-27 04:24:00,67.1,63.8,30.02,WSW,242,0.0,7.0,89,0.00,,---,0.00,VWS V13.01,2013-08-27 08:24:00,
2013-08-27 04:25:00,67.1,63.8,30.02,WSW,242,0.0,7.0,89,0.00,,---,0.00,VWS V13.01,2013-08-27 08:25:00,
2013-08-27 04:27:00,67.1,63.8,30.02,West,267,0.0,10.0,89,0.00,,---,0.00,VWS V13.01,2013-08-27 08:27:00,
2013-08-27 04:28:00,67.1,63.8,30.02,West,265,0.0,10.0,89,0.00,,---,0.00,VWS V13.01,2013-08-27 08:28:00,
2013-08-27 04:29:00,67.1,63.8,30.02,West,281,6.0,10.0,89,0.00,,---,0.00,VWS V13.01,2013-08-27 08:29:00,
2013-08-27 04:30:00,67.2,63.8,30.02,West,281,0.0,10.0,89,0.00,,---,0.00,VWS V13.01,2013-08-27 08:30:00,
2013-08-27 04:32:00,67.2,63.8,30.02,West,272,0.0,10.0,89,0.00,,---,0.00,VWS V13.01,2013-08-27 08:32:00,
2013-08-27 04:33:00,67.2,63.8,30.02,West,272,0.0,1.0,89,0.00,,---,0.00,VWS V13.01,2013-08-27 08:33:00,
2013-08-27 04:34:00,67.2,63.8,30.02,West,272,0.0,1.0,89,0.00,,---,0.00,VWS V13.01,2013-08-27 08:34:00,
2013-08-27 04:35:00,67.2,63.8,30.02,WSW,247,0.0,4.0,89,0.00,,---,0.00,VWS V13.01,2013-08-27 08:35:00,
2013-08-27 04:37:00,67.2,63.8,30.02,SW,226,0.0,4.0,89,0.00,,---,0.00,VWS V13.01,2013-08-27 08:37:00,
2013-08-27 04:39:00,67.3,64.0,30.02,SW,227,0.0,4.0,89,0.00,,---,0.00,VWS V13.01,2013-08-27 08:39:00,
2013-08-27 04:40:00,67.3,64.0,30.02,SW,227,0.0,4.0,89,0.00,,---,0.00,VWS V13.01,2013-08-27 08:40:00,
2013-08-27 04:42:00,67.3,64.0,30.02,SW,227,0.0,4.0,89,0.00,,---,0.00,VWS V13.01,2013-08-27 08:42:00,
2013-08-27 04:44:00,67.3,64.0,30.02,WSW,237,0.0,4.0,89,0.00,,---,0.00,VWS V13.01,2013-08-27 08:44:00,
2013-08-27 04:45:00,67.2,63.8,30.02,West,280,0.0,5.0,89,0.00,,---,0.00,VWS V13.01,2013-08-27 08:45:00,
2013-08-27 04:47:00,67.2,63.8,30.01,West,278,0.0,5.0,89,0.00,,---,0.00,VWS V13.01,2013-08-27 08:47:00,
2013-08-27 04:48:00,67.3,64.0,30.02,West,260,0.0,5.0,89,0.00,,---,0.00,VWS V13.01,2013-08-27 08:48:00,
2013-08-27 04:49:00,67.2,63.8,30.01,West,260,0.0,5.0,89,0.00,,---,0.00,VWS V13.01,2013-08-27 08:49:00,
2013-08-27 04:50:00,67.2,63.8,30.01,West,260,0.0,5.0,89,0.00,,---,0.00,VWS V13.01,2013-08-27 08:50:00,
2013-08-27 04:52:00,67.2,63.8,30.01,West,260,0.0,5.0,89,0.00,,---,0.00,VWS V13.01,2013-08-27 08:52:00,
2013-08-27 04:53:00,67.2,63.8,30.01,West,260,0.0,5.0,89,0.00,,---,0.00,VWS V13.01,2013-08-27 08:53:00,
2013-08-27 04:54:00,67.1,63.8,30.01,West,260,0.0,5.0,89,0.00,,---,0.00,VWS V13.01,2013-08-27 08:54:00,
2013-08-27 04:55:00,67.1,63.8,30.01,West,260,0.0,5.0,89,0.00,,---,0.00,VWS V13.01,2013-08-27 08:55:00,
2013-08-27 04:57:00,66.9,63.9,30.01,West,260,0.0,5.0,90,0.00,,---,0.00,VWS V13.01,2013-08-27 08:57:00,
2013-08-27 04:58:00,66.9,63.9,30.01,WSW,257,0.0,5.0,90,0.00,,---,0.00,VWS V13.01,2013-08-27 08:58:00,
2013-08-27 04:59:00,66.8,63.8,30.01,WSW,257,0.0,5.0,90,0.00,,---,0.00,VWS V13.01,2013-08-27 08:59:00,
2013-08-27 05:00:00,66.8,63.8,30.01,WSW,257,0.0,5.0,90,0.00,,---,0.00,VWS V13.01,2013-08-27 09:00:00,
2013-08-27 05:01:00,66.8,63.8,30.01,WSW,256,0.0,5.0,90,0.00,,---,0.00,VWS V13.01,2013-08-27 09:01:00,
2013-08-27 05:02:00,66.8,63.8,30.01,WSW,257,0.0,0.0,90,0.00,,---,0.00,VWS V13.01,2013-08-27 09:02:00,
2013-08-27 05:03:00,66.7,63.7,30.01,WSW,257,0.0,0.0,90,0.00,,---,0.00,VWS V13.01,2013-08-27 09:03:00,
2013-08-27 05:04:00,66.7,63.7,30.01,WSW,256,0.0,1.0,90,0.00,,---,0.00,VWS V13.01,2013-08-27 09:04:00,
2013-08-27 05:05:00,66.7,63.7,30.01,WSW,257,0.0,1.0,90,0.00,,---,0.00,VWS V13.01,2013-08-27 09:05:00,
2013-08-27 05:06:00,66.6,63.6,30.01,West,259,0.0,4.0,90,0.00,,---,0.00,VWS V13.01,2013-08-27 09:06:00,
2013-08-27 05:07:00,66.5,63.5,30.01,West,259,0.0,4.0,90,0.00,,---,0.00,VWS V13.01,2013-08-27 09:07:00,
2013-08-27 05:08:00,66.5,63.8,30.01,West,259,0.0,4.0,91,0.00,,---,0.00,VWS V13.01,2013-08-27 09:08:00,
2013-08-27 05:09:00,66.5,63.8,30.01,West,259,0.0,4.0,91,0.00,,---,0.00,VWS V13.01,2013-08-27 09:09:00,
2013-08-27 05:10:00,66.5,63.8,30.01,West,259,0.0,4.0,91,0.00,,---,0.00,VWS V13.01,2013-08-27 09:10:00,
2013-08-27 05:11:00,66.4,63.7,30.01,West,259,0.0,4.0,91,0.00,,---,0.00,VWS V13.01,2013-08-27 09:11:00,
2013-08-27 05:12:00,66.4,63.7,30.01,West,259,1.0,4.0,91,0.00,,---,0.00,VWS V13.01,2013-08-27 09:12:00,
2013-08-27 05:13:00,66.3,63.6,30.01,West,259,0.0,4.0,91,0.00,,---,0.00,VWS V13.01,2013-08-27 09:13:00,
2013-08-27 05:14:00,66.3,63.6,30.01,West,259,0.0,4.0,91,0.00,,---,0.00,VWS V13.01,2013-08-27 09:14:00,
2013-08-27 05:15:00,66.3,63.6,30.01,West,259,0.0,4.0,91,0.00,,---,0.00,VWS V13.01,2013-08-27 09:15:00,
2013-08-27 05:16:00,66.3,63.6,30.01,WSW,256,0.0,4.0,91,0.00,,---,0.00,VWS V13.01,2013-08-27 09:16:00,
2013-08-27 05:17:00,66.3,63.6,30.01,WSW,256,0.0,4.0,91,0.00,,---,0.00,VWS V13.01,2013-08-27 09:17:00,
2013-08-27 05:18:00,66.3,63.6,30.01,WSW,256,0.0,4.0,91,0.00,,---,0.00,VWS V13.01,2013-08-27 09:18:00,
2013-08-27 05:19:00,66.3,63.6,30.01,WSW,256,0.0,4.0,91,0.00,,---,0.00,VWS V13.01,2013-08-27 09:19:00,
2013-08-27 05:20:00,66.3,63.6,30.01,WSW,242,0.0,4.0,91,0.00,,---,0.00,VWS V13.01,2013-08-27 09:20:00,
2013-08-27 05:22:00,66.3,63.9,30.01,WSW,242,1.0,4.0,92,0.00,,---,0.00,VWS V13.01,2013-08-27 09:22:00,
2013-08-27 05:23:00,66.3,63.9,30.01,WSW,243,3.0,4.0,92,0.00,,---,0.00,VWS V13.01,2013-08-27 09:23:00,
2013-08-27 05:24:00,66.3,63.9,30.01,WSW,244,0.0,4.0,92,0.00,,---,0.00,VWS V13.01,2013-08-27 09:24:00,
2013-08-27 05:25:00,66.3,63.9,30.01,WSW,244,0.0,4.0,92,0.00,,---,0.00,VWS V13.01,2013-08-27 09:25:00,
2013-08-27 05:27:00,66.3,63.9,30.01,WSW,244,0.0,4.0,92,0.00,,---,0.00,VWS V13.01,2013-08-27 09:27:00,
2013-08-27 05:28:00,66.2,63.8,30.01,WSW,244,0.0,4.0,92,0.00,,---,0.00,VWS V13.01,2013-08-27 09:28:00,
2013-08-27 05:29:00,66.2,63.8,30.01,WSW,244,0.0,4.0,92,0.00,,---,0.00,VWS V13.01,2013-08-27 09:29:00,
2013-08-27 05:30:00,66.2,63.8,30.01,WSW,244,0.0,4.0,92,0.00,,---,0.00,VWS V13.01,2013-08-27 09:30:00,
2013-08-27 05:32:00,66.2,63.8,30.01,WSW,244,0.0,0.0,92,0.00,,---,0.00,VWS V13.01,2013-08-27 09:32:00,
2013-08-27 05:33:00,66.1,63.7,30.01,WSW,244,0.0,0.0,92,0.00,,---,0.00,VWS V13.01,2013-08-27 09:33:00,
2013-08-27 05:34:00,66.1,63.7,30.01,WSW,244,0.0,1.0,92,0.00,,---,0.00,VWS V13.01,2013-08-27 09:34:00,
2013-08-27 05:35:00,66.1,63.7,30.01,WSW,244,0.0,1.0,92,0.00,,---,0.00,VWS V13.01,2013-08-27 09:35:00,
2013-08-27 05:37:00,66.0,63.6,30.01,WSW,244,0.0,1.0,92,0.00,,---,0.00,VWS V13.01,2013-08-27 09:37:00,
2013-08-27 05:38:00,66.1,63.7,30.01,WSW,244,0.0,1.0,92,0.00,,---,0.00,VWS V13.01,2013-08-27 09:38:00,
2013-08-27 05:39:00,66.1,63.7,30.01,WSW,244,0.0,1.0,92,0.00,,---,0.00,VWS V13.01,2013-08-27 09:39:00,
2013-08-27 05:41:00,66.1,63.7,30.01,WSW,244,0.0,1.0,92,0.00,,---,0.00,VWS V13.01,2013-08-27 09:41:00,
2013-08-27 05:42:00,66.0,63.6,30.01,WSW,244,0.0,1.0,92,0.00,,---,0.00,VWS V13.01,2013-08-27 09:42:00,
2013-08-27 05:43:00,66.0,63.6,30.01,WSW,244,0.0,1.0,92,0.00,,---,0.00,VWS V13.01,2013-08-27 09:43:00,
2013-08-27 05:45:00,66.0,63.6,30.01,WSW,244,0.0,1.0,92,0.00,,---,0.00,VWS V13.01,2013-08-27 09:45:00,
2013-08-27 05:46:00,65.9,63.5,30.01,WSW,244,0.0,1.0,92,0.00,,---,0.00,VWS V13.01,2013-08-27 09:46:00,
2013-08-27 05:47:00,65.9,63.5,30.01,WSW,244,0.0,1.0,92,0.00,,---,0.00,VWS V13.01,2013-08-27 09:47:00,
2013-08-27 05:48:00,65.9,63.5,30.01,WSW,244,0.0,1.0,92,0.00,,---,0.00,VWS V13.01,2013-08-27 09:48:00,
2013-08-27 05:50:00,65.9,63.8,30.01,WSW,244,0.0,1.0,93,0.00,,---,0.00,VWS V13.01,2013-08-27 09:50:00,
2013-08-27 05:51:00,65.9,63.8,30.01,WSW,244,0.0,1.0,93,0.00,,---,0.00,VWS V13.01,2013-08-27 09:51:00,
2013-08-27 05:52:00,65.9,63.8,30.01,WSW,244,0.0,1.0,93,0.00,,---,0.00,VWS V13.01,2013-08-27 09:52:00,
2013-08-27 05:53:00,65.8,63.7,30.01,WSW,244,0.0,1.0,93,0.00,,---,0.00,VWS V13.01,2013-08-27 09:53:00,
2013-08-27 05:55:00,65.8,63.7,30.01,WSW,244,0.0,2.0,93,0.00,,---,0.00,VWS V13.01,2013-08-27 09:55:00,
2013-08-27 05:56:00,65.8,63.7,30.01,WSW,244,0.0,2.0,93,0.00,,---,0.00,VWS V13.01,2013-08-27 09:56:00,
2013-08-27 05:58:00,65.8,63.7,30.01,WSW,244,0.0,2.0,93,0.00,,---,0.00,VWS V13.01,2013-08-27 09:58:00,
2013-08-27 06:00:00,65.7,63.6,30.01,WSW,244,0.0,2.0,93,0.00,,---,0.00,VWS V13.01,2013-08-27 10:00:00,
2013-08-27 06:01:00,65.7,63.6,30.01,WSW,244,0.0,2.0,93,0.00,,---,0.00,VWS V13.01,2013-08-27 10:01:00,
2013-08-27 06:03:00,65.7,63.6,30.01,WSW,244,0.0,0.0,93,0.00,,---,0.00,VWS V13.01,2013-08-27 10:03:00,
2013-08-27 06:05:00,65.7,63.6,30.01,WSW,244,0.0,0.0,93,0.00,,---,0.00,VWS V13.01,2013-08-27 10:05:00,
2013-08-27 06:06:00,65.7,63.6,30.01,WSW,244,0.0,2.0,93,0.00,,---,0.00,VWS V13.01,2013-08-27 10:06:00,
2013-08-27 06:08:00,65.6,63.5,30.00,WSW,244,0.0,2.0,93,0.00,,---,0.00,VWS V13.01,2013-08-27 10:08:00,
2013-08-27 06:11:00,65.6,63.5,30.00,WSW,244,0.0,2.0,93,0.00,,---,0.00,VWS V13.01,2013-08-27 10:11:00,
2013-08-27 06:13:00,65.4,63.3,30.00,WSW,244,0.0,2.0,93,0.00,,---,0.00,VWS V13.01,2013-08-27 10:13:00,
2013-08-27 06:14:00,65.4,63.3,30.00,WSW,244,0.0,2.0,93,0.00,,---,0.00,VWS V13.01,2013-08-27 10:14:00,
2013-08-27 06:16:00,65.4,63.6,30.00,WSW,244,0.0,2.0,94,0.00,,---,0.00,VWS V13.01,2013-08-27 10:16:00,
2013-08-27 06:18:00,65.4,63.6,30.00,WSW,244,0.0,3.0,94,0.00,,---,0.00,VWS V13.01,2013-08-27 10:18:00,
2013-08-27 06:19:00,65.4,63.6,30.00,WSW,244,0.0,3.0,94,0.00,,---,0.00,VWS V13.01,2013-08-27 10:19:00,
2013-08-27 06:21:00,65.4,63.6,30.00,WSW,244,0.0,3.0,94,0.00,,---,0.00,VWS V13.01,2013-08-27 10:21:00,
2013-08-27 06:22:00,65.4,63.6,30.00,WSW,244,0.0,3.0,94,0.00,,---,0.00,VWS V13.01,2013-08-27 10:22:00,
2013-08-27 06:23:00,65.4,63.6,30.00,WSW,244,0.0,3.0,94,0.00,,---,0.00,VWS V13.01,2013-08-27 10:23:00,
2013-08-27 06:24:00,65.3,63.5,30.00,WSW,244,0.0,3.0,94,0.00,,---,0.00,VWS V13.01,2013-08-27 10:24:00,
2013-08-27 06:26:00,65.3,63.5,30.00,WSW,244,0.0,3.0,94,0.00,,---,0.00,VWS V13.01,2013-08-27 10:26:00,
2013-08-27 06:27:00,65.3,63.5,30.00,WSW,244,0.0,3.0,94,0.00,,---,0.00,VWS V13.01,2013-08-27 10:27:00,
2013-08-27 06:28:00,65.2,63.4,30.00,WSW,244,0.0,3.0,94,0.00,,---,0.00,VWS V13.01,2013-08-27 10:28:00,
2013-08-27 06:29:00,65.3,63.5,30.00,WSW,244,0.0,3.0,94,0.00,,---,0.00,VWS V13.01,2013-08-27 10:29:00,
2013-08-27 06:31:00,65.2,63.4,30.00,WSW,244,0.0,3.0,94,0.00,,---,0.00,VWS V13.01,2013-08-27 10:31:00,
2013-08-27 06:32:00,65.2,63.4,30.00,WSW,244,0.0,0.0,94,0.00,,---,0.00,VWS V13.01,2013-08-27 10:32:00,
2013-08-27 06:33:00,65.1,63.3,30.00,WSW,244,0.0,0.0,94,0.00,,---,0.00,VWS V13.01,2013-08-27 10:33:00,
2013-08-27 06:34:00,65.2,63.4,30.00,WSW,244,0.0,0.0,94,0.00,,---,0.00,VWS V13.01,2013-08-27 10:34:00,
2013-08-27 06:36:00,65.1,63.3,30.01,WSW,244,0.0,2.0,94,0.00,,---,0.00,VWS V13.01,2013-08-27 10:36:00,
2013-08-27 06:37:00,65.1,63.3,30.01,WSW,244,0.0,2.0,94,0.00,,---,0.00,VWS V13.01,2013-08-27 10:37:00,
2013-08-27 06:38:00,65.1,63.3,30.01,WSW,244,0.0,2.0,94,0.00,,---,0.00,VWS V13.01,2013-08-27 10:38:00,
2013-08-27 06:39:00,65.1,63.3,30.01,WSW,244,0.0,2.0,94,0.00,,---,0.00,VWS V13.01,2013-08-27 10:39:00,
2013-08-27 06:41:00,65.1,63.3,30.01,WSW,244,0.0,2.0,94,0.00,,---,0.00,VWS V13.01,2013-08-27 10:41:00,
2013-08-27 06:42:00,65.1,63.3,30.01,WSW,244,0.0,2.0,94,0.00,,---,0.00,VWS V13.01,2013-08-27 10:42:00,
2013-08-27 06:43:00,65.1,63.3,30.01,WSW,244,0.0,2.0,94,0.00,,---,0.00,VWS V13.01,2013-08-27 10:43:00,
2013-08-27 06:44:00,65.1,63.3,30.01,WSW,244,0.0,2.0,94,0.00,,---,0.00,VWS V13.01,2013-08-27 10:44:00,
2013-08-27 06:45:00,65.1,63.3,30.01,WSW,244,0.0,2.0,94,0.00,,---,0.00,VWS V13.01,2013-08-27 10:45:00,
2013-08-27 06:46:00,65.1,63.3,30.01,WSW,244,0.0,2.0,94,0.00,,---,0.00,VWS V13.01,2013-08-27 10:46:00,
2013-08-27 06:47:00,65.0,63.2,30.01,WSW,244,0.0,2.0,94,0.00,,---,0.00,VWS V13.01,2013-08-27 10:47:00,
2013-08-27 06:49:00,65.0,63.2,30.01,WSW,244,0.0,2.0,94,0.00,,---,0.00,VWS V13.01,2013-08-27 10:49:00,
2013-08-27 06:50:00,65.0,63.5,30.01,WSW,244,0.0,2.0,95,0.00,,---,0.00,VWS V13.01,2013-08-27 10:50:00,
2013-08-27 06:51:00,65.0,63.5,30.01,WSW,244,0.0,2.0,95,0.00,,---,0.00,VWS V13.01,2013-08-27 10:51:00,
2013-08-27 06:52:00,65.0,63.5,30.01,WSW,244,0.0,2.0,95,0.00,,---,0.00,VWS V13.01,2013-08-27 10:52:00,
2013-08-27 06:54:00,65.0,63.5,30.01,WSW,244,0.0,2.0,95,0.00,,---,0.00,VWS V13.01,2013-08-27 10:54:00,
2013-08-27 06:55:00,65.0,63.5,30.01,WSW,244,0.0,2.0,95,0.00,,---,0.00,VWS V13.01,2013-08-27 10:55:00,
2013-08-27 06:57:00,65.0,63.5,30.01,WSW,244,0.0,2.0,95,0.00,,---,0.00,VWS V13.01,2013-08-27 10:57:00,
2013-08-27 06:59:00,65.0,63.5,30.01,WSW,244,0.0,2.0,95,0.00,,---,0.00,VWS V13.01,2013-08-27 10:59:00,
2013-08-27 07:00:00,65.0,63.5,30.01,WSW,244,0.0,2.0,95,0.00,,---,0.00,VWS V13.01,2013-08-27 11:00:00,
2013-08-27 07:02:00,65.0,63.5,30.01,WSW,244,0.0,0.0,95,0.00,,---,0.00,VWS V13.01,2013-08-27 11:02:00,
2013-08-27 07:04:00,64.9,63.4,30.01,WSW,244,0.0,0.0,95,0.00,,---,0.00,VWS V13.01,2013-08-27 11:04:00,
2013-08-27 07:05:00,64.9,63.4,30.01,WSW,244,0.0,0.0,95,0.00,,---,0.00,VWS V13.01,2013-08-27 11:05:00,
2013-08-27 07:07:00,64.9,63.4,30.01,WSW,244,0.0,1.0,95,0.00,,---,0.00,VWS V13.01,2013-08-27 11:07:00,
2013-08-27 07:08:00,64.9,63.4,30.01,WSW,244,0.0,1.0,95,0.00,,---,0.00,VWS V13.01,2013-08-27 11:08:00,
2013-08-27 07:09:00,64.9,63.4,30.01,WSW,244,0.0,1.0,95,0.00,,---,0.00,VWS V13.01,2013-08-27 11:09:00,
2013-08-27 07:10:00,64.9,63.4,30.01,WSW,244,0.0,1.0,95,0.00,,---,0.00,VWS V13.01,2013-08-27 11:10:00,
2013-08-27 07:12:00,64.9,63.4,30.01,WSW,244,0.0,1.0,95,0.00,,---,0.00,VWS V13.01,2013-08-27 11:12:00,
2013-08-27 07:13:00,64.9,63.4,30.01,WSW,244,0.0,1.0,95,0.00,,---,0.00,VWS V13.01,2013-08-27 11:13:00,
2013-08-27 07:14:00,65.0,63.5,30.01,WSW,244,0.0,1.0,95,0.00,,---,0.00,VWS V13.01,2013-08-27 11:14:00,
2013-08-27 07:15:00,65.0,63.5,30.01,WSW,244,0.0,1.0,95,0.00,,---,0.00,VWS V13.01,2013-08-27 11:15:00,
2013-08-27 07:17:00,65.0,63.5,30.01,WSW,244,0.0,1.0,95,0.00,,---,0.00,VWS V13.01,2013-08-27 11:17:00,
2013-08-27 07:18:00,65.0,63.5,30.01,WSW,244,0.0,1.0,95,0.00,,---,0.00,VWS V13.01,2013-08-27 11:18:00,
2013-08-27 07:19:00,65.1,63.6,30.01,WSW,244,0.0,1.0,95,0.00,,---,0.00,VWS V13.01,2013-08-27 11:19:00,
2013-08-27 07:20:00,65.1,63.6,30.01,WSW,244,0.0,1.0,95,0.00,,---,0.00,VWS V13.01,2013-08-27 11:20:00,
2013-08-27 07:21:00,65.1,63.6,30.01,WSW,244,0.0,1.0,95,0.00,,---,0.00,VWS V13.01,2013-08-27 11:21:00,
2013-08-27 07:22:00,65.2,64.0,30.01,WSW,244,0.0,1.0,96,0.00,,---,0.00,VWS V13.01,2013-08-27 11:22:00,
2013-08-27 07:23:00,65.1,63.9,30.01,WSW,244,0.0,1.0,96,0.00,,---,0.00,VWS V13.01,2013-08-27 11:23:00,
2013-08-27 07:24:00,65.2,64.0,30.01,WSW,244,0.0,1.0,96,0.00,,---,0.00,VWS V13.01,2013-08-27 11:24:00,
2013-08-27 07:25:00,65.2,64.0,30.01,WSW,244,0.0,1.0,96,0.00,,---,0.00,VWS V13.01,2013-08-27 11:25:00,
2013-08-27 07:26:00,65.2,64.0,30.01,WSW,244,0.0,1.0,96,0.00,,---,0.00,VWS V13.01,2013-08-27 11:26:00,
2013-08-27 07:28:00,65.3,63.8,30.01,WSW,244,0.0,1.0,95,0.00,,---,0.00,VWS V13.01,2013-08-27 11:28:00,
2013-08-27 07:30:00,65.4,64.2,30.01,WSW,244,0.0,1.0,96,0.00,,---,0.00,VWS V13.01,2013-08-27 11:30:00,
2013-08-27 07:31:00,65.4,64.2,30.01,WSW,244,0.0,2.0,96,0.00,,---,0.00,VWS V13.01,2013-08-27 11:31:00,
2013-08-27 07:33:00,65.5,64.3,30.01,WSW,244,0.0,0.0,96,0.00,,---,0.00,VWS V13.01,2013-08-27 11:33:00,
2013-08-27 07:35:00,65.6,64.4,30.01,WSW,244,0.0,1.0,96,0.00,,---,0.00,VWS V13.01,2013-08-27 11:35:00,
2013-08-27 07:36:00,65.7,64.5,30.01,WSW,244,0.0,1.0,96,0.00,,---,0.00,VWS V13.01,2013-08-27 11:36:00,
2013-08-27 07:38:00,65.8,64.6,30.02,WSW,244,0.0,3.0,96,0.00,,---,0.00,VWS V13.01,2013-08-27 11:38:00,
2013-08-27 07:40:00,66.0,64.8,30.02,WSW,244,0.0,3.0,96,0.00,,---,0.00,VWS V13.01,2013-08-27 11:40:00,
2013-08-27 07:41:00,66.0,64.5,30.01,WSW,244,0.0,3.0,95,0.00,,---,0.00,VWS V13.01,2013-08-27 11:41:00,
2013-08-27 07:43:00,66.2,64.7,30.01,WSW,246,0.0,3.0,95,0.00,,---,0.00,VWS V13.01,2013-08-27 11:43:00,
2013-08-27 07:45:00,66.3,64.8,30.02,WSW,245,0.0,3.0,95,0.00,,---,0.00,VWS V13.01,2013-08-27 11:45:00,
2013-08-27 07:46:00,66.4,64.9,30.02,WSW,245,0.0,3.0,95,0.00,,---,0.00,VWS V13.01,2013-08-27 11:46:00,
2013-08-27 07:48:00,66.5,65.0,30.02,WSW,246,0.0,3.0,95,0.00,,---,0.00,VWS V13.01,2013-08-27 11:48:00,
2013-08-27 07:50:00,66.7,65.2,30.02,WSW,245,0.0,3.0,95,0.00,,---,0.00,VWS V13.01,2013-08-27 11:50:00,
2013-08-27 07:51:00,66.7,65.2,30.02,WSW,245,0.0,3.0,95,0.00,,---,0.00,VWS V13.01,2013-08-27 11:51:00,
2013-08-27 07:53:00,66.8,65.3,30.02,WSW,245,0.0,3.0,95,0.00,,---,0.00,VWS V13.01,2013-08-27 11:53:00,
2013-08-27 07:55:00,66.9,65.4,30.01,WSW,248,2.0,3.0,95,0.00,,---,0.00,VWS V13.01,2013-08-27 11:55:00,
2013-08-27 07:56:00,67.0,65.5,30.01,WSW,248,0.0,3.0,95,0.00,,---,0.00,VWS V13.01,2013-08-27 11:56:00,
2013-08-27 07:58:00,67.1,65.3,30.01,WSW,248,0.0,3.0,94,0.00,,---,0.00,VWS V13.01,2013-08-27 11:58:00,
2013-08-27 08:00:00,67.2,65.4,30.01,WSW,248,0.0,3.0,94,0.00,,---,0.00,VWS V13.01,2013-08-27 12:00:00,
2013-08-27 08:01:00,67.2,65.4,30.01,WSW,248,0.0,3.0,94,0.00,,---,0.00,VWS V13.01,2013-08-27 12:01:00,
2013-08-27 08:02:00,67.2,65.4,30.01,WSW,248,0.0,3.0,94,0.00,,---,0.00,VWS V13.01,2013-08-27 12:02:00,
2013-08-27 08:03:00,67.3,65.5,30.01,WSW,248,0.0,3.0,94,0.00,,---,0.00,VWS V13.01,2013-08-27 12:03:00,
2013-08-27 08:04:00,67.4,65.6,30.01,WSW,248,0.0,3.0,94,0.00,,---,0.00,VWS V13.01,2013-08-27 12:04:00,
2013-08-27 08:06:00,67.4,65.6,30.01,WSW,250,0.0,3.0,94,0.00,,---,0.00,VWS V13.01,2013-08-27 12:06:00,
2013-08-27 08:07:00,67.5,65.7,30.01,WSW,249,0.0,3.0,94,0.00,,---,0.00,VWS V13.01,2013-08-27 12:07:00,
2013-08-27 08:08:00,67.6,65.8,30.01,WSW,250,0.0,3.0,94,0.00,,---,0.00,VWS V13.01,2013-08-27 12:08:00,
2013-08-27 08:09:00,67.6,65.8,30.01,WSW,250,0.0,3.0,94,0.00,,---,0.00,VWS V13.01,2013-08-27 12:09:00,
2013-08-27 08:11:00,67.7,65.6,30.01,WSW,250,0.0,3.0,93,0.00,,---,0.00,VWS V13.01,2013-08-27 12:11:00,
2013-08-27 08:12:00,67.8,65.7,30.01,WSW,249,0.0,3.0,93,0.00,,---,0.00,VWS V13.01,2013-08-27 12:12:00,
2013-08-27 08:13:00,67.9,65.8,30.01,WSW,250,0.0,3.0,93,0.00,,---,0.00,VWS V13.01,2013-08-27 12:13:00,
2013-08-27 08:14:00,67.9,65.8,30.01,WSW,249,0.0,3.0,93,0.00,,---,0.00,VWS V13.01,2013-08-27 12:14:00,
2013-08-27 08:16:00,68.0,65.9,30.01,WSW,251,0.0,3.0,93,0.00,,---,0.00,VWS V13.01,2013-08-27 12:16:00,
2013-08-27 08:17:00,68.1,66.0,30.01,WSW,250,0.0,3.0,93,0.00,,---,0.00,VWS V13.01,2013-08-27 12:17:00,
2013-08-27 08:18:00,68.2,66.1,30.01,WSW,250,0.0,3.0,93,0.00,,---,0.00,VWS V13.01,2013-08-27 12:18:00,
2013-08-27 08:19:00,68.2,66.1,30.01,WSW,251,0.0,3.0,93,0.00,,---,0.00,VWS V13.01,2013-08-27 12:19:00,
2013-08-27 08:21:00,68.4,66.3,30.01,WSW,251,0.0,3.0,93,0.00,,---,0.00,VWS V13.01,2013-08-27 12:21:00,
2013-08-27 08:22:00,68.4,66.0,30.01,WSW,251,0.0,3.0,92,0.00,,---,0.00,VWS V13.01,2013-08-27 12:22:00,
2013-08-27 08:24:00,68.5,66.1,30.01,WSW,251,0.0,3.0,92,0.00,,---,0.00,VWS V13.01,2013-08-27 12:24:00,
2013-08-27 08:26:00,68.6,66.2,30.01,WSW,251,0.0,3.0,92,0.00,,---,0.00,VWS V13.01,2013-08-27 12:26:00,
2013-08-27 08:27:00,68.8,66.4,30.01,WSW,250,0.0,3.0,92,0.00,,---,0.00,VWS V13.01,2013-08-27 12:27:00,
2013-08-27 08:29:00,68.9,66.5,30.01,WSW,251,0.0,3.0,92,0.00,,---,0.00,VWS V13.01,2013-08-27 12:29:00,
2013-08-27 08:31:00,69.1,66.7,30.01,WSW,251,0.0,3.0,92,0.00,,---,0.00,VWS V13.01,2013-08-27 12:31:00,
2013-08-27 08:32:00,69.2,66.8,30.01,WSW,251,1.0,1.0,92,0.00,,---,0.00,VWS V13.01,2013-08-27 12:32:00,
2013-08-27 08:34:00,69.3,66.6,30.01,WSW,251,0.0,1.0,91,0.00,,---,0.00,VWS V13.01,2013-08-27 12:34:00,
2013-08-27 08:36:00,69.4,66.7,30.01,WSW,251,0.0,1.0,91,0.00,,---,0.00,VWS V13.01,2013-08-27 12:36:00,
2013-08-27 08:38:00,69.5,66.8,30.01,WSW,251,0.0,1.0,91,0.00,,---,0.00,VWS V13.01,2013-08-27 12:38:00,
2013-08-27 08:39:00,69.7,67.0,30.01,WSW,250,0.0,1.0,91,0.00,,---,0.00,VWS V13.01,2013-08-27 12:39:00,
2013-08-27 08:41:00,69.9,67.2,30.01,WSW,250,0.0,1.0,91,0.00,,---,0.00,VWS V13.01,2013-08-27 12:41:00,
2013-08-27 08:43:00,70.0,66.9,30.01,WSW,251,0.0,1.0,90,0.00,,---,0.00,VWS V13.01,2013-08-27 12:43:00,
2013-08-27 08:44:00,70.1,67.0,30.01,WSW,251,0.0,1.0,90,0.00,,---,0.00,VWS V13.01,2013-08-27 12:44:00,
2013-08-27 08:46:00,70.3,67.2,30.00,WSW,251,0.0,1.0,90,0.00,,---,0.00,VWS V13.01,2013-08-27 12:46:00,
2013-08-27 08:48:00,70.5,67.4,30.00,WSW,251,0.0,1.0,90,0.00,,---,0.00,VWS V13.01,2013-08-27 12:48:00,
2013-08-27 08:49:00,70.6,67.2,30.00,WSW,250,0.0,1.0,89,0.00,,---,0.00,VWS V13.01,2013-08-27 12:49:00,
2013-08-27 08:51:00,70.8,67.4,30.00,WSW,251,0.0,1.0,89,0.00,,---,0.00,VWS V13.01,2013-08-27 12:51:00,
2013-08-27 08:53:00,71.0,67.6,30.00,WSW,251,0.0,1.0,89,0.00,,---,0.00,VWS V13.01,2013-08-27 12:53:00,
2013-08-27 08:54:00,71.1,67.7,30.00,WSW,251,0.0,1.0,89,0.00,,---,0.00,VWS V13.01,2013-08-27 12:54:00,
2013-08-27 08:55:00,71.2,67.8,30.00,WSW,250,0.0,1.0,89,0.00,,---,0.00,VWS V13.01,2013-08-27 12:55:00,
2013-08-27 08:56:00,71.3,67.6,30.00,WSW,251,0.0,1.0,88,0.00,,---,0.00,VWS V13.01,2013-08-27 12:56:00,
2013-08-27 08:58:00,71.4,67.7,30.00,WSW,250,0.0,1.0,88,0.00,,---,0.00,VWS V13.01,2013-08-27 12:58:00,
2013-08-27 08:59:00,71.6,67.9,30.00,WSW,250,0.0,1.0,88,0.00,,---,0.00,VWS V13.01,2013-08-27 12:59:00,
2013-08-27 09:00:00,71.6,67.9,30.00,WSW,251,0.0,1.0,88,0.00,,---,0.00,VWS V13.01,2013-08-27 13:00:00,
2013-08-27 09:01:00,71.8,68.1,30.00,WSW,251,0.0,1.0,88,0.00,,---,0.00,VWS V13.01,2013-08-27 13:01:00,
2013-08-27 09:03:00,72.2,68.1,30.00,WSW,251,0.0,0.0,87,0.00,,---,0.00,VWS V13.01,2013-08-27 13:03:00,
2013-08-27 09:05:00,72.4,68.0,30.00,WSW,251,0.0,1.0,86,0.00,,---,0.00,VWS V13.01,2013-08-27 13:05:00,
2013-08-27 09:06:00,72.8,68.4,30.00,WSW,257,0.0,4.0,86,0.00,,---,0.00,VWS V13.01,2013-08-27 13:06:00,
2013-08-27 09:09:00,73.1,68.3,29.99,West,259,0.0,4.0,85,0.00,,---,0.00,VWS V13.01,2013-08-27 13:09:00,
2013-08-27 09:10:00,73.3,68.9,29.99,West,259,0.0,4.0,86,0.00,,---,0.00,VWS V13.01,2013-08-27 13:10:00,
2013-08-27 09:11:00,73.5,68.7,29.99,West,266,0.0,4.0,85,0.00,,---,0.00,VWS V13.01,2013-08-27 13:11:00,
2013-08-27 09:14:00,73.9,69.1,29.99,West,265,0.0,4.0,85,0.00,,---,0.00,VWS V13.01,2013-08-27 13:14:00,
2013-08-27 09:15:00,74.1,69.0,29.99,West,280,0.0,5.0,84,0.00,,---,0.00,VWS V13.01,2013-08-27 13:15:00,
2013-08-27 09:16:00,74.2,69.1,29.99,NNW,331,0.0,5.0,84,0.00,,---,0.00,VWS V13.01,2013-08-27 13:16:00,
2013-08-27 09:19:00,74.5,69.0,30.00,NNW,331,0.0,5.0,83,0.00,,---,0.00,VWS V13.01,2013-08-27 13:19:00,
2013-08-27 09:20:00,74.6,69.4,30.00,NNW,331,0.0,5.0,84,0.00,,---,0.00,VWS V13.01,2013-08-27 13:20:00,
2013-08-27 09:22:00,74.7,69.2,30.00,NNW,331,0.0,5.0,83,0.00,,---,0.00,VWS V13.01,2013-08-27 13:22:00,
2013-08-27 09:24:00,74.6,69.1,30.00,NNW,331,0.0,5.0,83,0.00,,---,0.00,VWS V13.01,2013-08-27 13:24:00,
2013-08-27 09:25:00,74.6,69.4,30.00,NNW,331,0.0,5.0,84,0.00,,---,0.00,VWS V13.01,2013-08-27 13:25:00,
2013-08-27 09:27:00,74.7,69.6,30.00,NNW,331,0.0,5.0,84,0.00,,---,0.00,VWS V13.01,2013-08-27 13:27:00,
2013-08-27 09:29:00,75.1,69.9,30.00,NNW,331,0.0,5.0,84,0.00,,---,0.00,VWS V13.01,2013-08-27 13:29:00,
2013-08-27 09:30:00,75.4,69.9,30.00,NNW,331,0.0,5.0,83,0.00,,---,0.00,VWS V13.01,2013-08-27 13:30:00,
2013-08-27 09:32:00,75.5,69.6,29.99,NNW,331,0.0,0.0,82,0.00,,---,0.00,VWS V13.01,2013-08-27 13:32:00,
2013-08-27 09:34:00,75.6,69.7,29.99,NW,315,0.0,1.0,82,0.00,,---,0.00,VWS V13.01,2013-08-27 13:34:00,
2013-08-27 09:35:00,75.6,69.7,29.99,NW,315,0.0,1.0,82,0.00,,---,0.00,VWS V13.01,2013-08-27 13:35:00,
2013-08-27 09:36:00,75.6,70.1,29.99,NW,315,0.0,1.0,83,0.00,,---,0.00,VWS V13.01,2013-08-27 13:36:00,
2013-08-27 09:37:00,75.8,70.3,29.99,NW,315,0.0,1.0,83,0.00,,---,0.00,VWS V13.01,2013-08-27 13:37:00,
2013-08-27 09:39:00,75.9,70.0,29.99,NW,314,0.0,1.0,82,0.00,,---,0.00,VWS V13.01,2013-08-27 13:39:00,
2013-08-27 09:40:00,76.0,70.1,29.99,West,260,0.0,3.0,82,0.00,,---,0.00,VWS V13.01,2013-08-27 13:40:00,
2013-08-27 09:41:00,76.1,70.2,29.99,West,260,0.0,3.0,82,0.00,,---,0.00,VWS V13.01,2013-08-27 13:41:00,
2013-08-27 09:42:00,76.2,70.3,29.99,West,261,0.0,3.0,82,0.00,,---,0.00,VWS V13.01,2013-08-27 13:42:00,
2013-08-27 09:44:00,76.4,70.1,29.99,West,261,0.0,3.0,81,0.00,,---,0.00,VWS V13.01,2013-08-27 13:44:00,
2013-08-27 09:45:00,76.4,70.5,29.99,West,259,1.0,3.0,82,0.00,,---,0.00,VWS V13.01,2013-08-27 13:45:00,
2013-08-27 09:46:00,76.5,70.2,29.99,North,360,0.0,3.0,81,0.00,,---,0.00,VWS V13.01,2013-08-27 13:46:00,
2013-08-27 09:48:00,76.7,70.8,29.99,NNW,340,0.0,4.0,82,0.00,,---,0.00,VWS V13.01,2013-08-27 13:48:00,
2013-08-27 09:49:00,76.9,70.6,29.99,NNW,329,0.0,4.0,81,0.00,,---,0.00,VWS V13.01,2013-08-27 13:49:00,
2013-08-27 09:50:00,77.0,70.7,29.99,NW,325,0.0,4.0,81,0.00,,---,0.00,VWS V13.01,2013-08-27 13:50:00,
2013-08-27 09:51:00,77.0,70.0,29.99,NW,325,0.0,4.0,79,0.00,,---,0.00,VWS V13.01,2013-08-27 13:51:00,
2013-08-27 09:53:00,77.1,70.5,29.99,WNW,300,0.0,4.0,80,0.00,,---,0.00,VWS V13.01,2013-08-27 13:53:00,
2013-08-27 09:55:00,77.3,70.7,29.99,NW,313,0.0,4.0,80,0.00,,---,0.00,VWS V13.01,2013-08-27 13:55:00,
2013-08-27 09:56:00,77.4,70.4,29.99,NW,313,1.0,4.0,79,0.00,,---,0.00,VWS V13.01,2013-08-27 13:56:00,
2013-08-27 09:58:00,77.5,70.1,29.99,NW,317,0.0,6.0,78,0.00,,---,0.00,VWS V13.01,2013-08-27 13:58:00,
2013-08-27 10:00:00,77.3,70.3,30.00,WNW,299,0.0,6.0,79,0.00,,---,0.00,VWS V13.01,2013-08-27 14:00:00,
2013-08-27 10:01:00,77.4,71.1,30.00,WNW,299,0.0,6.0,81,0.00,,---,0.00,VWS V13.01,2013-08-27 14:01:00,
2013-08-27 10:03:00,77.5,70.8,30.00,WNW,299,0.0,0.0,80,0.00,,---,0.00,VWS V13.01,2013-08-27 14:03:00,
2013-08-27 10:05:00,77.6,71.3,30.00,WNW,299,0.0,1.0,81,0.00,,---,0.00,VWS V13.01,2013-08-27 14:05:00,
2013-08-27 10:06:00,77.6,70.6,30.00,WNW,299,0.0,1.0,79,0.00,,---,0.00,VWS V13.01,2013-08-27 14:06:00,
2013-08-27 10:08:00,77.7,71.0,30.00,WNW,299,0.0,1.0,80,0.00,,---,0.00,VWS V13.01,2013-08-27 14:08:00,
2013-08-27 10:10:00,77.9,71.2,30.00,WNW,299,0.0,1.0,80,0.00,,---,0.00,VWS V13.01,2013-08-27 14:10:00,
2013-08-27 10:11:00,77.9,71.6,30.00,WNW,299,1.0,1.0,81,0.00,,---,0.00,VWS V13.01,2013-08-27 14:11:00,
2013-08-27 10:13:00,77.8,71.5,30.00,WNW,299,0.0,1.0,81,0.00,,---,0.00,VWS V13.01,2013-08-27 14:13:00,
2013-08-27 10:15:00,77.9,71.6,30.00,WNW,300,0.0,4.0,81,0.00,,---,0.00,VWS V13.01,2013-08-27 14:15:00,
2013-08-27 10:16:00,78.0,71.3,30.00,WNW,299,0.0,4.0,80,0.00,,---,0.00,VWS V13.01,2013-08-27 14:16:00,
2013-08-27 10:17:00,78.0,71.3,30.00,West,269,2.0,4.0,80,0.00,,---,0.00,VWS V13.01,2013-08-27 14:17:00,
2013-08-27 10:18:00,78.0,71.3,30.00,WSW,254,0.0,5.0,80,0.00,,---,0.00,VWS V13.01,2013-08-27 14:18:00,
2013-08-27 10:20:00,78.0,71.3,30.00,NW,313,3.0,5.0,80,0.00,,---,0.00,VWS V13.01,2013-08-27 14:20:00,
2013-08-27 10:22:00,78.1,71.4,30.00,NW,308,0.0,5.0,80,0.00,,---,0.00,VWS V13.01,2013-08-27 14:22:00,
2013-08-27 10:23:00,78.1,70.7,30.00,NNE,13,0.0,10.0,78,0.00,,---,0.00,VWS V13.01,2013-08-27 14:23:00,
2013-08-27 10:25:00,78.1,70.7,30.00,North,360,0.0,10.0,78,0.00,,---,0.00,VWS V13.01,2013-08-27 14:25:00,
2013-08-27 10:27:00,78.1,71.4,30.00,North,355,2.0,10.0,80,0.00,,---,0.00,VWS V13.01,2013-08-27 14:27:00,
2013-08-27 10:28:00,78.2,71.5,30.00,NNW,331,0.0,10.0,80,0.00,,---,0.00,VWS V13.01,2013-08-27 14:28:00,
2013-08-27 10:31:00,78.3,71.3,30.00,NNW,331,0.0,10.0,79,0.00,,---,0.00,VWS V13.01,2013-08-27 14:31:00,
2013-08-27 10:32:00,78.5,71.4,30.00,NNW,331,0.0,0.0,79,0.00,,---,0.00,VWS V13.01,2013-08-27 14:32:00,
2013-08-27 10:34:00,78.4,71.3,30.00,NNW,331,0.0,0.0,79,0.00,,---,0.00,VWS V13.01,2013-08-27 14:34:00,
2013-08-27 10:36:00,78.4,71.7,30.00,NNW,331,0.0,1.0,80,0.00,,---,0.00,VWS V13.01,2013-08-27 14:36:00,
2013-08-27 10:37:00,78.4,71.3,30.00,NNW,331,0.0,1.0,79,0.00,,---,0.00,VWS V13.01,2013-08-27 14:37:00,
2013-08-27 10:39:00,78.5,71.1,30.00,NNW,331,0.0,4.0,78,0.00,,---,0.00,VWS V13.01,2013-08-27 14:39:00,
2013-08-27 10:41:00,78.5,71.4,30.00,NNW,331,0.0,4.0,79,0.00,,---,0.00,VWS V13.01,2013-08-27 14:41:00,
2013-08-27 10:42:00,78.4,71.3,30.00,NNW,331,0.0,4.0,79,0.00,,---,0.00,VWS V13.01,2013-08-27 14:42:00,
2013-08-27 10:44:00,78.7,71.6,30.00,NNW,332,0.0,4.0,79,0.00,,---,0.00,VWS V13.01,2013-08-27 14:44:00,
2013-08-27 10:46:00,78.8,72.5,30.00,NNW,332,0.0,4.0,81,0.00,,---,0.00,VWS V13.01,2013-08-27 14:46:00,
2013-08-27 10:47:00,79.0,71.9,30.00,NNW,331,0.0,4.0,79,0.00,,---,0.00,VWS V13.01,2013-08-27 14:47:00,
2013-08-27 10:49:00,79.3,71.8,30.00,NNW,332,0.0,4.0,78,0.00,,---,0.00,VWS V13.01,2013-08-27 14:49:00,
2013-08-27 10:51:00,79.4,71.9,30.00,NNW,332,0.0,4.0,78,0.00,,---,0.00,VWS V13.01,2013-08-27 14:51:00,
2013-08-27 10:52:00,79.5,72.0,30.00,NNW,331,0.0,4.0,78,0.00,,---,0.00,VWS V13.01,2013-08-27 14:52:00,
2013-08-27 10:53:00,79.5,72.0,30.00,NNW,332,0.0,4.0,78,0.00,,---,0.00,VWS V13.01,2013-08-27 14:53:00,
2013-08-27 10:55:00,79.7,72.2,30.00,NNW,332,0.0,4.0,78,0.00,,---,0.00,VWS V13.01,2013-08-27 14:55:00,
2013-08-27 10:56:00,79.8,72.3,30.00,NNW,332,0.0,4.0,78,0.00,,---,0.00,VWS V13.01,2013-08-27 14:56:00,
2013-08-27 10:58:00,80.1,72.2,29.99,NNW,332,0.0,4.0,77,0.00,,---,0.00,VWS V13.01,2013-08-27 14:58:00,
2013-08-27 11:00:00,80.2,72.3,29.99,NNW,331,0.0,4.0,77,0.00,,---,0.00,VWS V13.01,2013-08-27 15:00:00,
2013-08-27 11:01:00,80.3,72.1,29.99,NNW,331,2.0,4.0,76,0.00,,---,0.00,VWS V13.01,2013-08-27 15:01:00,
2013-08-27 11:03:00,80.5,72.6,29.99,NNW,331,0.0,3.0,77,0.00,,---,0.00,VWS V13.01,2013-08-27 15:03:00,
2013-08-27 11:05:00,80.4,71.8,29.99,NNW,331,0.0,3.0,75,0.00,,---,0.00,VWS V13.01,2013-08-27 15:05:00,
2013-08-27 11:06:00,80.3,71.7,29.99,NNW,329,0.0,3.0,75,0.00,,---,0.00,VWS V13.01,2013-08-27 15:06:00,
2013-08-27 11:08:00,80.2,72.3,29.99,NNW,330,0.0,4.0,77,0.00,,---,0.00,VWS V13.01,2013-08-27 15:08:00,
2013-08-27 11:11:00,80.5,72.2,29.99,NNW,328,0.0,5.0,76,0.00,,---,0.00,VWS V13.01,2013-08-27 15:11:00,
2013-08-27 11:13:00,80.6,71.6,29.99,NNW,329,0.0,5.0,74,0.00,,---,0.00,VWS V13.01,2013-08-27 15:13:00,
2013-08-27 11:16:00,80.7,72.0,29.99,NNW,329,0.0,5.0,75,0.00,,---,0.00,VWS V13.01,2013-08-27 15:16:00,
2013-08-27 11:18:00,80.9,72.2,29.99,NNW,329,0.0,5.0,75,0.00,,---,0.00,VWS V13.01,2013-08-27 15:18:00,
2013-08-27 11:21:00,81.1,72.0,29.99,NNW,333,0.0,5.0,74,0.00,,---,0.00,VWS V13.01,2013-08-27 15:21:00,
2013-08-27 11:22:00,81.4,71.9,29.99,NNW,333,0.0,5.0,73,0.00,,---,0.00,VWS V13.01,2013-08-27 15:22:00,
2013-08-27 11:23:00,81.6,72.5,29.99,NNW,337,2.0,5.0,74,0.00,,---,0.00,VWS V13.01,2013-08-27 15:23:00,
2013-08-27 11:24:00,81.8,72.3,29.99,NNW,337,0.0,5.0,73,0.00,,---,0.00,VWS V13.01,2013-08-27 15:24:00,
2013-08-27 11:26:00,81.7,71.0,29.99,NNW,338,1.0,5.0,70,0.00,,---,0.00,VWS V13.01,2013-08-27 15:26:00,
2013-08-27 11:27:00,81.5,71.2,29.99,NNW,337,0.0,5.0,71,0.00,,---,0.00,VWS V13.01,2013-08-27 15:27:00,
2013-08-27 11:28:00,81.4,71.5,29.99,NNW,337,0.0,5.0,72,0.00,,---,0.00,VWS V13.01,2013-08-27 15:28:00,
2013-08-27 11:29:00,81.4,71.5,29.99,NW,316,3.0,5.0,72,0.00,,---,0.00,VWS V13.01,2013-08-27 15:29:00,
2013-08-27 11:31:00,81.7,72.6,29.99,North,360,5.0,9.0,74,0.00,,---,0.00,VWS V13.01,2013-08-27 15:31:00,
2013-08-27 11:32:00,81.9,72.4,29.99,NW,325,4.0,7.0,73,0.00,,---,0.00,VWS V13.01,2013-08-27 15:32:00,
2013-08-27 11:33:00,82.1,72.6,29.99,NNW,334,1.0,7.0,73,0.00,,---,0.00,VWS V13.01,2013-08-27 15:33:00,
2013-08-27 11:34:00,82.1,72.2,29.99,NNW,332,1.0,7.0,72,0.00,,---,0.00,VWS V13.01,2013-08-27 15:34:00,
2013-08-27 11:36:00,82.1,71.8,29.99,NE,54,0.0,7.0,71,0.00,,---,0.00,VWS V13.01,2013-08-27 15:36:00,
2013-08-27 11:38:00,82.0,71.7,29.99,NE,49,0.0,7.0,71,0.00,,---,0.00,VWS V13.01,2013-08-27 15:38:00,
2013-08-27 11:39:00,82.0,72.1,29.99,North,355,1.0,7.0,72,0.00,,---,0.00,VWS V13.01,2013-08-27 15:39:00,
2013-08-27 11:41:00,82.0,72.1,29.98,NNW,336,0.0,7.0,72,0.00,,---,0.00,VWS V13.01,2013-08-27 15:41:00,
2013-08-27 11:43:00,82.5,73.8,29.98,NNW,334,0.0,7.0,75,0.00,,---,0.00,VWS V13.01,2013-08-27 15:43:00,
2013-08-27 11:44:00,82.6,72.7,29.98,North,5,4.0,7.0,72,0.00,,---,0.00,VWS V13.01,2013-08-27 15:44:00,
2013-08-27 11:46:00,82.9,72.1,29.98,NNW,329,0.0,7.0,70,0.00,,---,0.00,VWS V13.01,2013-08-27 15:46:00,
2013-08-27 11:48:00,83.0,72.6,29.98,NNW,338,7.0,10.0,71,0.00,,---,0.00,VWS V13.01,2013-08-27 15:48:00,
2013-08-27 11:49:00,83.1,71.9,29.98,North,355,1.0,10.0,69,0.00,,---,0.00,VWS V13.01,2013-08-27 15:49:00,
2013-08-27 11:50:00,83.2,72.4,29.98,NNW,342,0.0,10.0,70,0.00,,---,0.00,VWS V13.01,2013-08-27 15:50:00,
2013-08-27 11:51:00,83.0,71.4,29.98,WNW,288,0.0,10.0,68,0.00,,---,0.00,VWS V13.01,2013-08-27 15:51:00,
2013-08-27 11:53:00,82.7,71.9,29.98,North,360,7.0,10.0,70,0.00,,---,0.00,VWS V13.01,2013-08-27 15:53:00,
2013-08-27 11:54:00,82.7,72.3,29.98,NNE,22,7.0,10.0,71,0.00,,---,0.00,VWS V13.01,2013-08-27 15:54:00,
2013-08-27 11:55:00,82.7,72.3,29.98,NNW,338,0.0,10.0,71,0.00,,---,0.00,VWS V13.01,2013-08-27 15:55:00,
2013-08-27 11:56:00,82.8,72.0,29.98,NW,317,0.0,10.0,70,0.00,,---,0.00,VWS V13.01,2013-08-27 15:56:00,
2013-08-27 11:58:00,83.0,72.6,29.98,North,5,2.0,10.0,71,0.00,,---,0.00,VWS V13.01,2013-08-27 15:58:00,
2013-08-27 11:59:00,83.1,72.7,29.98,North,9,0.0,10.0,71,0.00,,---,0.00,VWS V13.01,2013-08-27 15:59:00,
2013-08-27 12:00:00,83.5,72.7,29.98,North,355,4.0,10.0,70,0.00,,---,0.00,VWS V13.01,2013-08-27 16:00:00,
2013-08-27 12:02:00,83.6,72.4,29.98,North,5,1.0,10.0,69,0.00,,---,0.00,VWS V13.01,2013-08-27 16:02:00,
2013-08-27 12:03:00,83.7,72.0,29.98,North,360,7.0,7.0,68,0.00,,---,0.00,VWS V13.01,2013-08-27 16:03:00,
2013-08-27 12:04:00,83.6,71.9,29.98,North,360,2.0,7.0,68,0.00,,---,0.00,VWS V13.01,2013-08-27 16:04:00,
2013-08-27 12:05:00,83.6,71.9,29.98,North,5,0.0,7.0,68,0.00,,---,0.00,VWS V13.01,2013-08-27 16:05:00,
2013-08-27 12:07:00,83.7,73.3,29.98,North,5,8.0,9.0,71,0.00,,---,0.00,VWS V13.01,2013-08-27 16:07:00,
2013-08-27 12:08:00,83.8,72.1,29.98,NNW,344,0.0,9.0,68,0.00,,---,0.00,VWS V13.01,2013-08-27 16:08:00,
2013-08-27 12:09:00,83.9,72.2,29.98,North,360,0.0,9.0,68,0.00,,---,0.00,VWS V13.01,2013-08-27 16:09:00,
2013-08-27 12:10:00,83.9,72.2,29.98,NNW,336,4.0,9.0,68,0.00,,---,0.00,VWS V13.01,2013-08-27 16:10:00,
2013-08-27 12:11:00,83.9,72.7,29.98,NW,326,4.0,9.0,69,0.00,,---,0.00,VWS V13.01,2013-08-27 16:11:00,
2013-08-27 12:12:00,83.8,72.6,29.98,NW,308,0.0,9.0,69,0.00,,---,0.00,VWS V13.01,2013-08-27 16:12:00,
2013-08-27 12:13:00,83.6,72.8,29.98,NNW,329,4.0,9.0,70,0.00,,---,0.00,VWS V13.01,2013-08-27 16:13:00,
2013-08-27 12:14:00,83.6,72.8,29.98,NNW,330,0.0,9.0,70,0.00,,---,0.00,VWS V13.01,2013-08-27 16:14:00,
2013-08-27 12:16:00,83.4,72.2,29.98,NNW,330,1.0,9.0,69,0.00,,---,0.00,VWS V13.01,2013-08-27 16:16:00,
2013-08-27 12:17:00,83.3,72.5,29.98,NNW,330,0.0,9.0,70,0.00,,---,0.00,VWS V13.01,2013-08-27 16:17:00,
2013-08-27 12:18:00,83.5,72.7,29.98,NW,314,6.0,9.0,70,0.00,,---,0.00,VWS V13.01,2013-08-27 16:18:00,
2013-08-27 12:20:00,83.6,72.8,29.98,NNW,333,3.0,9.0,70,0.00,,---,0.00,VWS V13.01,2013-08-27 16:20:00,
2013-08-27 12:21:00,83.7,72.9,29.98,NNW,334,0.0,9.0,70,0.00,,---,0.00,VWS V13.01,2013-08-27 16:21:00,
2013-08-27 12:22:00,84.1,73.3,29.98,NE,42,3.0,9.0,70,0.00,,---,0.00,VWS V13.01,2013-08-27 16:22:00,
2013-08-27 12:24:00,84.3,72.2,29.98,North,350,7.0,10.0,67,0.00,,---,0.00,VWS V13.01,2013-08-27 16:24:00,
2013-08-27 12:25:00,84.6,72.4,29.98,North,355,0.0,10.0,67,0.00,,---,0.00,VWS V13.01,2013-08-27 16:25:00,
2013-08-27 12:26:00,84.5,72.3,29.97,NE,47,0.0,10.0,67,0.00,,---,0.00,VWS V13.01,2013-08-27 16:26:00,
2013-08-27 12:28:00,84.3,72.6,29.97,NW,313,0.0,10.0,68,0.00,,---,0.00,VWS V13.01,2013-08-27 16:28:00,
2013-08-27 12:29:00,84.2,72.5,29.97,NNW,330,0.0,10.0,68,0.00,,---,0.00,VWS V13.01,2013-08-27 16:29:00,
2013-08-27 12:30:00,84.4,74.0,29.97,NNE,15,0.0,10.0,71,0.00,,---,0.00,VWS V13.01,2013-08-27 16:30:00,
2013-08-27 12:31:00,84.5,74.1,29.97,NNE,15,0.0,10.0,71,0.00,,---,0.00,VWS V13.01,2013-08-27 16:31:00,
2013-08-27 12:33:00,84.6,72.9,29.97,NNW,344,5.0,5.0,68,0.00,,---,0.00,VWS V13.01,2013-08-27 16:33:00,
2013-08-27 12:34:00,84.7,73.8,29.97,North,360,0.0,5.0,70,0.00,,---,0.00,VWS V13.01,2013-08-27 16:34:00,
2013-08-27 12:35:00,85.2,73.9,29.97,NNE,22,0.0,7.0,69,0.00,,---,0.00,VWS V13.01,2013-08-27 16:35:00,
2013-08-27 12:36:00,85.3,74.0,29.97,NNE,21,0.0,7.0,69,0.00,,---,0.00,VWS V13.01,2013-08-27 16:36:00,
2013-08-27 12:38:00,85.4,74.5,29.97,NW,307,0.0,7.0,70,0.00,,---,0.00,VWS V13.01,2013-08-27 16:38:00,
2013-08-27 12:39:00,85.3,73.1,29.97,NW,322,1.0,7.0,67,0.00,,---,0.00,VWS V13.01,2013-08-27 16:39:00,
2013-08-27 12:40:00,85.1,72.9,29.97,North,349,5.0,11.0,67,0.00,,---,0.00,VWS V13.01,2013-08-27 16:40:00,
2013-08-27 12:41:00,85.1,73.4,29.97,NW,321,0.0,11.0,68,0.00,,---,0.00,VWS V13.01,2013-08-27 16:41:00,
2013-08-27 12:43:00,85.2,73.9,29.97,NNE,15,3.0,11.0,69,0.00,,---,0.00,VWS V13.01,2013-08-27 16:43:00,
2013-08-27 12:44:00,85.2,73.0,29.97,NNE,16,0.0,11.0,67,0.00,,---,0.00,VWS V13.01,2013-08-27 16:44:00,
2013-08-27 12:46:00,85.1,74.2,29.97,North,360,0.0,11.0,70,0.00,,---,0.00,VWS V13.01,2013-08-27 16:46:00,
2013-08-27 12:47:00,85.3,73.6,29.97,NNE,26,3.0,11.0,68,0.00,,---,0.00,VWS V13.01,2013-08-27 16:47:00,
2013-08-27 12:48:00,85.4,73.2,29.97,North,360,3.0,11.0,67,0.00,,---,0.00,VWS V13.01,2013-08-27 16:48:00,
2013-08-27 12:49:00,85.4,73.2,29.97,North,355,2.0,11.0,67,0.00,,---,0.00,VWS V13.01,2013-08-27 16:49:00,
2013-08-27 12:51:00,85.5,73.7,29.97,North,5,2.0,11.0,68,0.00,,---,0.00,VWS V13.01,2013-08-27 16:51:00,
2013-08-27 12:52:00,85.4,72.8,29.97,NE,36,2.0,11.0,66,0.00,,---,0.00,VWS V13.01,2013-08-27 16:52:00,
2013-08-27 12:53:00,85.2,72.6,29.97,North,355,0.0,11.0,66,0.00,,---,0.00,VWS V13.01,2013-08-27 16:53:00,
2013-08-27 12:54:00,85.2,72.6,29.97,NNE,26,1.0,11.0,66,0.00,,---,0.00,VWS V13.01,2013-08-27 16:54:00,
2013-08-27 12:56:00,85.1,73.4,29.97,North,11,2.0,11.0,68,0.00,,---,0.00,VWS V13.01,2013-08-27 16:56:00,
2013-08-27 12:57:00,85.0,72.8,29.97,NNE,13,0.0,11.0,67,0.00,,---,0.00,VWS V13.01,2013-08-27 16:57:00,
2013-08-27 12:59:00,85.1,72.9,29.97,NW,307,5.0,11.0,67,0.00,,---,0.00,VWS V13.01,2013-08-27 16:59:00,
2013-08-27 13:01:00,84.9,73.2,29.97,NW,313,0.0,11.0,68,0.00,,---,0.00,VWS V13.01,2013-08-27 17:01:00,
2013-08-27 13:02:00,85.1,73.4,29.97,NNW,336,0.0,0.0,68,0.00,,---,0.00,VWS V13.01,2013-08-27 17:02:00,
2013-08-27 13:04:00,85.2,73.4,29.97,NE,39,0.0,5.0,68,0.00,,---,0.00,VWS V13.01,2013-08-27 17:04:00,
2013-08-27 13:06:00,85.4,74.1,29.97,NNE,23,0.0,7.0,69,0.00,,---,0.00,VWS V13.01,2013-08-27 17:06:00,
2013-08-27 13:07:00,85.6,74.3,29.97,NNE,21,1.0,7.0,69,0.00,,---,0.00,VWS V13.01,2013-08-27 17:07:00,
2013-08-27 13:09:00,85.4,73.2,29.97,NW,305,0.0,7.0,67,0.00,,---,0.00,VWS V13.01,2013-08-27 17:09:00,
2013-08-27 13:11:00,85.2,73.4,29.96,NNW,348,5.0,7.0,68,0.00,,---,0.00,VWS V13.01,2013-08-27 17:11:00,
2013-08-27 13:12:00,85.3,73.6,29.96,North,355,2.0,7.0,68,0.00,,---,0.00,VWS V13.01,2013-08-27 17:12:00,
2013-08-27 13:13:00,85.4,73.6,29.97,North,351,3.0,9.0,68,0.00,,---,0.00,VWS V13.01,2013-08-27 17:13:00,
2013-08-27 13:14:00,85.6,73.8,29.97,North,350,0.0,9.0,68,0.00,,---,0.00,VWS V13.01,2013-08-27 17:14:00,
2013-08-27 13:16:00,85.9,72.8,29.97,NE,52,0.0,11.0,65,0.00,,---,0.00,VWS V13.01,2013-08-27 17:16:00,
2013-08-27 13:17:00,85.8,73.1,29.97,NE,53,0.0,11.0,66,0.00,,---,0.00,VWS V13.01,2013-08-27 17:17:00,
2013-08-27 13:18:00,85.7,73.0,29.97,NE,36,6.0,11.0,66,0.00,,---,0.00,VWS V13.01,2013-08-27 17:18:00,
2013-08-27 13:19:00,85.5,73.3,29.96,North,355,3.0,11.0,67,0.00,,---,0.00,VWS V13.01,2013-08-27 17:19:00,
2013-08-27 13:21:00,85.3,74.0,29.97,NNW,339,5.0,11.0,69,0.00,,---,0.00,VWS V13.01,2013-08-27 17:21:00,
2013-08-27 13:22:00,85.2,72.6,29.96,North,355,0.0,11.0,66,0.00,,---,0.00,VWS V13.01,2013-08-27 17:22:00,
2013-08-27 13:23:00,85.1,72.9,29.97,ENE,57,3.0,11.0,67,0.00,,---,0.00,VWS V13.01,2013-08-27 17:23:00,
2013-08-27 13:24:00,85.0,73.3,29.97,NE,34,0.0,11.0,68,0.00,,---,0.00,VWS V13.01,2013-08-27 17:24:00,
2013-08-27 13:25:00,84.9,74.0,29.97,NE,37,1.0,11.0,70,0.00,,---,0.00,VWS V13.01,2013-08-27 17:25:00,
2013-08-27 13:26:00,84.7,74.3,29.97,North,10,0.0,11.0,71,0.00,,---,0.00,VWS V13.01,2013-08-27 17:26:00,
2013-08-27 13:27:00,84.7,73.8,29.97,North,5,7.0,11.0,70,0.00,,---,0.00,VWS V13.01,2013-08-27 17:27:00,
2013-08-27 13:28:00,84.8,73.9,29.97,North,11,0.0,11.0,70,0.00,,---,0.00,VWS V13.01,2013-08-27 17:28:00,
2013-08-27 13:29:00,84.8,72.6,29.97,NNE,18,2.0,11.0,67,0.00,,---,0.00,VWS V13.01,2013-08-27 17:29:00,
2013-08-27 13:30:00,84.8,73.1,29.96,NNE,25,0.0,11.0,68,0.00,,---,0.00,VWS V13.01,2013-08-27 17:30:00,
2013-08-27 13:31:00,84.7,73.0,29.96,ENE,59,0.0,11.0,68,0.00,,---,0.00,VWS V13.01,2013-08-27 17:31:00,
2013-08-27 13:32:00,84.5,73.2,29.96,ENE,66,0.0,4.0,69,0.00,,---,0.00,VWS V13.01,2013-08-27 17:32:00,
2013-08-27 13:33:00,84.5,73.7,29.96,North,5,5.0,5.0,70,0.00,,---,0.00,VWS V13.01,2013-08-27 17:33:00,
2013-08-27 13:34:00,84.6,73.7,29.96,North,360,5.0,5.0,70,0.00,,---,0.00,VWS V13.01,2013-08-27 17:34:00,
2013-08-27 13:35:00,84.7,73.4,29.96,North,5,0.0,5.0,69,0.00,,---,0.00,VWS V13.01,2013-08-27 17:35:00,
2013-08-27 13:36:00,85.2,73.4,29.96,North,350,1.0,6.0,68,0.00,,---,0.00,VWS V13.01,2013-08-27 17:36:00,
2013-08-27 13:38:00,85.3,74.0,29.97,North,350,0.0,6.0,69,0.00,,---,0.00,VWS V13.01,2013-08-27 17:38:00,
2013-08-27 13:39:00,85.4,74.1,29.97,North,350,1.0,6.0,69,0.00,,---,0.00,VWS V13.01,2013-08-27 17:39:00,
2013-08-27 13:40:00,85.5,73.7,29.96,North,355,0.0,6.0,68,0.00,,---,0.00,VWS V13.01,2013-08-27 17:40:00,
2013-08-27 13:42:00,85.7,73.5,29.96,North,355,1.0,6.0,67,0.00,,---,0.00,VWS V13.01,2013-08-27 17:42:00,
2013-08-27 13:43:00,85.8,73.6,29.96,North,351,0.0,6.0,67,0.00,,---,0.00,VWS V13.01,2013-08-27 17:43:00,
2013-08-27 13:44:00,85.9,74.1,29.96,North,355,0.0,6.0,68,0.00,,---,0.00,VWS V13.01,2013-08-27 17:44:00,
2013-08-27 13:45:00,85.8,74.0,29.96,NNE,13,0.0,6.0,68,0.00,,---,0.00,VWS V13.01,2013-08-27 17:45:00,
2013-08-27 13:47:00,85.9,75.0,29.96,NNE,13,0.0,6.0,70,0.00,,---,0.00,VWS V13.01,2013-08-27 17:47:00,
2013-08-27 13:48:00,86.1,75.2,29.96,North,11,2.0,6.0,70,0.00,,---,0.00,VWS V13.01,2013-08-27 17:48:00,
2013-08-27 13:49:00,85.9,74.6,29.96,NNW,346,0.0,6.0,69,0.00,,---,0.00,VWS V13.01,2013-08-27 17:49:00,
2013-08-27 13:50:00,85.8,74.0,29.96,North,351,1.0,6.0,68,0.00,,---,0.00,VWS V13.01,2013-08-27 17:50:00,
2013-08-27 13:52:00,85.7,74.4,29.96,NW,326,1.0,6.0,69,0.00,,---,0.00,VWS V13.01,2013-08-27 17:52:00,
2013-08-27 13:53:00,85.9,74.6,29.96,NNW,327,3.0,7.0,69,0.00,,---,0.00,VWS V13.01,2013-08-27 17:53:00,
2013-08-27 13:54:00,86.0,74.7,29.96,NW,325,0.0,7.0,69,0.00,,---,0.00,VWS V13.01,2013-08-27 17:54:00,
2013-08-27 13:55:00,85.9,74.1,29.96,NNW,330,4.0,7.0,68,0.00,,---,0.00,VWS V13.01,2013-08-27 17:55:00,
2013-08-27 13:57:00,85.5,73.7,29.96,NW,307,0.0,7.0,68,0.00,,---,0.00,VWS V13.01,2013-08-27 17:57:00,
2013-08-27 13:58:00,85.4,73.6,29.96,NW,307,0.0,7.0,68,0.00,,---,0.00,VWS V13.01,2013-08-27 17:58:00,
2013-08-27 13:59:00,85.5,75.0,29.96,NW,309,0.0,7.0,71,0.00,,---,0.00,VWS V13.01,2013-08-27 17:59:00,
2013-08-27 14:00:00,85.5,75.0,29.96,NW,309,0.0,7.0,71,0.00,,---,0.00,VWS V13.01,2013-08-27 18:00:00,
2013-08-27 14:03:00,85.9,73.2,29.96,North,355,0.0,1.0,66,0.00,,---,0.00,VWS V13.01,2013-08-27 18:03:00,
2013-08-27 14:05:00,85.6,73.8,29.95,NE,56,0.0,4.0,68,0.00,,---,0.00,VWS V13.01,2013-08-27 18:05:00,
2013-08-27 14:06:00,85.5,73.3,29.95,NE,56,0.0,4.0,67,0.00,,---,0.00,VWS V13.01,2013-08-27 18:06:00,
2013-08-27 14:08:00,85.5,73.7,29.95,NNW,336,1.0,6.0,68,0.00,,---,0.00,VWS V13.01,2013-08-27 18:08:00,
2013-08-27 14:09:00,85.6,72.9,29.95,NNW,327,4.0,9.0,66,0.00,,---,0.00,VWS V13.01,2013-08-27 18:09:00,
2013-08-27 14:10:00,85.7,73.5,29.95,NNW,329,0.0,9.0,67,0.00,,---,0.00,VWS V13.01,2013-08-27 18:10:00,
2013-08-27 14:11:00,85.8,73.6,29.95,North,360,2.0,9.0,67,0.00,,---,0.00,VWS V13.01,2013-08-27 18:11:00,
2013-08-27 14:13:00,86.3,74.1,29.95,North,355,0.0,9.0,67,0.00,,---,0.00,VWS V13.01,2013-08-27 18:13:00,
2013-08-27 14:14:00,86.4,73.7,29.95,North,355,0.0,9.0,66,0.00,,---,0.00,VWS V13.01,2013-08-27 18:14:00,
2013-08-27 14:15:00,86.4,73.7,29.95,North,10,2.0,9.0,66,0.00,,---,0.00,VWS V13.01,2013-08-27 18:15:00,
2013-08-27 14:16:00,86.5,73.3,29.95,NNW,341,3.0,9.0,65,0.00,,---,0.00,VWS V13.01,2013-08-27 18:16:00,
2013-08-27 14:18:00,86.8,74.1,29.95,NW,315,3.0,9.0,66,0.00,,---,0.00,VWS V13.01,2013-08-27 18:18:00,
2013-08-27 14:19:00,87.0,73.4,29.95,NNW,342,6.0,10.0,64,0.00,,---,0.00,VWS V13.01,2013-08-27 18:19:00,
2013-08-27 14:20:00,87.1,73.0,29.95,NNW,340,0.0,10.0,63,0.00,,---,0.00,VWS V13.01,2013-08-27 18:20:00,
2013-08-27 14:22:00,87.0,73.4,29.95,NNW,337,4.0,10.0,64,0.00,,---,0.00,VWS V13.01,2013-08-27 18:22:00,
2013-08-27 14:23:00,87.1,73.4,29.95,NNW,344,5.0,10.0,64,0.00,,---,0.00,VWS V13.01,2013-08-27 18:23:00,
2013-08-27 14:24:00,87.4,73.7,29.95,NNW,342,0.0,10.0,64,0.00,,---,0.00,VWS V13.01,2013-08-27 18:24:00,
2013-08-27 14:25:00,87.3,74.1,29.95,NNW,342,0.0,10.0,65,0.00,,---,0.00,VWS V13.01,2013-08-27 18:25:00,
2013-08-27 14:27:00,87.2,74.0,29.95,North,360,0.0,10.0,65,0.00,,---,0.00,VWS V13.01,2013-08-27 18:27:00,
2013-08-27 14:28:00,87.1,74.4,29.95,NNE,21,6.0,10.0,66,0.00,,---,0.00,VWS V13.01,2013-08-27 18:28:00,
2013-08-27 14:29:00,87.1,73.4,29.95,North,351,2.0,10.0,64,0.00,,---,0.00,VWS V13.01,2013-08-27 18:29:00,
2013-08-27 14:30:00,87.0,73.8,29.95,North,355,5.0,10.0,65,0.00,,---,0.00,VWS V13.01,2013-08-27 18:30:00,
2013-08-27 14:31:00,86.9,73.7,29.95,North,355,0.0,10.0,65,0.00,,---,0.00,VWS V13.01,2013-08-27 18:31:00,
2013-08-27 14:32:00,86.6,73.0,29.95,NNW,344,0.0,5.0,64,0.00,,---,0.00,VWS V13.01,2013-08-27 18:32:00,
2013-08-27 14:34:00,86.2,73.1,29.95,ENE,71,1.0,5.0,65,0.00,,---,0.00,VWS V13.01,2013-08-27 18:34:00,
2013-08-27 14:35:00,86.0,74.2,29.95,ENE,71,0.0,5.0,68,0.00,,---,0.00,VWS V13.01,2013-08-27 18:35:00,
2013-08-27 14:36:00,85.9,73.7,29.94,North,349,5.0,6.0,67,0.00,,---,0.00,VWS V13.01,2013-08-27 18:36:00,
2013-08-27 14:37:00,86.0,72.4,29.94,North,360,3.0,6.0,64,0.00,,---,0.00,VWS V13.01,2013-08-27 18:37:00,
2013-08-27 14:39:00,86.1,73.9,29.94,NE,34,0.0,6.0,67,0.00,,---,0.00,VWS V13.01,2013-08-27 18:39:00,
2013-08-27 14:40:00,86.4,74.2,29.94,NNE,33,0.0,6.0,67,0.00,,---,0.00,VWS V13.01,2013-08-27 18:40:00,
2013-08-27 14:41:00,86.7,74.4,29.94,NNW,340,0.0,6.0,67,0.00,,---,0.00,VWS V13.01,2013-08-27 18:41:00,
2013-08-27 14:42:00,86.8,74.5,29.94,NNW,327,7.0,7.0,67,0.00,,---,0.00,VWS V13.01,2013-08-27 18:42:00,
2013-08-27 14:44:00,87.1,73.9,29.94,NNW,328,0.0,7.0,65,0.00,,---,0.00,VWS V13.01,2013-08-27 18:44:00,
2013-08-27 14:45:00,87.1,73.9,29.94,NNW,328,0.0,7.0,65,0.00,,---,0.00,VWS V13.01,2013-08-27 18:45:00,
2013-08-27 14:47:00,87.2,74.5,29.94,NNW,328,0.0,7.0,66,0.00,,---,0.00,VWS V13.01,2013-08-27 18:47:00,
2013-08-27 14:49:00,87.1,73.9,29.94,NNW,328,0.0,7.0,65,0.00,,---,0.00,VWS V13.01,2013-08-27 18:49:00,
2013-08-27 14:50:00,86.9,74.2,29.94,NNW,327,2.0,7.0,66,0.00,,---,0.00,VWS V13.01,2013-08-27 18:50:00,
2013-08-27 14:51:00,86.7,73.5,29.94,NNW,333,0.0,7.0,65,0.00,,---,0.00,VWS V13.01,2013-08-27 18:51:00,
2013-08-27 14:52:00,86.6,73.9,29.94,NNW,333,0.0,7.0,66,0.00,,---,0.00,VWS V13.01,2013-08-27 18:52:00,
2013-08-27 14:54:00,86.3,74.1,29.94,North,349,0.0,7.0,67,0.00,,---,0.00,VWS V13.01,2013-08-27 18:54:00,
2013-08-27 14:55:00,86.2,74.0,29.94,North,360,1.0,7.0,67,0.00,,---,0.00,VWS V13.01,2013-08-27 18:55:00,
2013-08-27 14:56:00,86.2,73.1,29.94,North,355,4.0,7.0,65,0.00,,---,0.00,VWS V13.01,2013-08-27 18:56:00,
2013-08-27 14:57:00,86.0,72.9,29.94,North,355,0.0,7.0,65,0.00,,---,0.00,VWS V13.01,2013-08-27 18:57:00,
2013-08-27 14:59:00,85.5,74.2,29.94,North,355,0.0,7.0,69,0.00,,---,0.00,VWS V13.01,2013-08-27 18:59:00,
2013-08-27 15:00:00,85.4,72.8,29.94,North,355,1.0,7.0,66,0.00,,---,0.00,VWS V13.01,2013-08-27 19:00:00,
2013-08-27 15:01:00,85.4,72.3,29.94,NNW,346,7.0,7.0,65,0.00,,---,0.00,VWS V13.01,2013-08-27 19:01:00,
2013-08-27 15:02:00,85.7,72.6,29.94,NNW,329,0.0,1.0,65,0.00,,---,0.00,VWS V13.01,2013-08-27 19:02:00,
2013-08-27 15:03:00,85.8,73.1,29.94,NNW,329,0.0,1.0,66,0.00,,---,0.00,VWS V13.01,2013-08-27 19:03:00,
2013-08-27 15:05:00,86.2,72.6,29.94,North,349,2.0,7.0,64,0.00,,---,0.00,VWS V13.01,2013-08-27 19:05:00,
2013-08-27 15:06:00,86.3,72.7,29.94,North,351,0.0,7.0,64,0.00,,---,0.00,VWS V13.01,2013-08-27 19:06:00,
2013-08-27 15:07:00,86.5,71.9,29.93,NE,53,0.0,7.0,62,0.00,,---,0.00,VWS V13.01,2013-08-27 19:07:00,
2013-08-27 15:08:00,86.6,72.5,29.93,NE,53,0.0,7.0,63,0.00,,---,0.00,VWS V13.01,2013-08-27 19:08:00,
2013-08-27 15:10:00,86.7,72.6,29.93,NNW,346,0.0,7.0,63,0.00,,---,0.00,VWS V13.01,2013-08-27 19:10:00,
2013-08-27 15:11:00,86.8,73.2,29.93,NNW,333,3.0,9.0,64,0.00,,---,0.00,VWS V13.01,2013-08-27 19:11:00,
2013-08-27 15:12:00,86.8,72.7,29.93,North,360,0.0,9.0,63,0.00,,---,0.00,VWS V13.01,2013-08-27 19:12:00,
2013-08-27 15:13:00,86.8,73.2,29.93,North,350,5.0,9.0,64,0.00,,---,0.00,VWS V13.01,2013-08-27 19:13:00,
2013-08-27 15:15:00,86.7,72.1,29.93,NNW,339,7.0,9.0,62,0.00,,---,0.00,VWS V13.01,2013-08-27 19:15:00,
2013-08-27 15:16:00,86.8,72.2,29.93,NNW,343,4.0,9.0,62,0.00,,---,0.00,VWS V13.01,2013-08-27 19:16:00,
2013-08-27 15:17:00,86.8,72.2,29.93,NNW,343,0.0,9.0,62,0.00,,---,0.00,VWS V13.01,2013-08-27 19:17:00,
2013-08-27 15:18:00,86.8,73.2,29.93,NNW,343,0.0,9.0,64,0.00,,---,0.00,VWS V13.01,2013-08-27 19:18:00,
2013-08-27 15:20:00,86.9,71.8,29.93,North,350,0.0,9.0,61,0.00,,---,0.00,VWS V13.01,2013-08-27 19:20:00,
2013-08-27 15:21:00,86.9,73.3,29.93,North,350,0.0,9.0,64,0.00,,---,0.00,VWS V13.01,2013-08-27 19:21:00,
2013-08-27 15:23:00,86.9,72.8,29.93,North,349,0.0,9.0,63,0.00,,---,0.00,VWS V13.01,2013-08-27 19:23:00,
2013-08-27 15:25:00,86.7,74.0,29.92,North,350,0.0,9.0,66,0.00,,---,0.00,VWS V13.01,2013-08-27 19:25:00,
2013-08-27 15:26:00,86.6,73.4,29.93,North,349,0.0,9.0,65,0.00,,---,0.00,VWS V13.01,2013-08-27 19:26:00,
2013-08-27 15:28:00,86.5,75.1,29.93,North,349,0.0,9.0,69,0.00,,---,0.00,VWS V13.01,2013-08-27 19:28:00,
2013-08-27 15:30:00,86.4,74.2,29.93,North,349,0.0,9.0,67,0.00,,---,0.00,VWS V13.01,2013-08-27 19:30:00,
2013-08-27 15:31:00,86.3,75.8,29.92,North,349,0.0,9.0,71,0.00,,---,0.00,VWS V13.01,2013-08-27 19:31:00,
2013-08-27 15:32:00,86.3,74.1,29.92,North,349,0.0,9.0,67,0.00,,---,0.00,VWS V13.01,2013-08-27 19:32:00,
2013-08-27 15:33:00,86.3,73.6,29.92,North,349,0.0,1.0,66,0.00,,---,0.00,VWS V13.01,2013-08-27 19:33:00,
2013-08-27 15:34:00,86.1,73.9,29.93,North,349,0.0,1.0,67,0.00,,---,0.00,VWS V13.01,2013-08-27 19:34:00,
2013-08-27 15:35:00,85.9,74.1,29.93,North,349,0.0,1.0,68,0.00,,---,0.00,VWS V13.01,2013-08-27 19:35:00,
2013-08-27 15:36:00,85.9,74.1,29.92,North,355,0.0,1.0,68,0.00,,---,0.00,VWS V13.01,2013-08-27 19:36:00,
2013-08-27 15:37:00,85.8,73.1,29.92,North,355,0.0,1.0,66,0.00,,---,0.00,VWS V13.01,2013-08-27 19:37:00,
2013-08-27 15:38:00,85.7,73.9,29.92,NNE,22,0.0,2.0,68,0.00,,---,0.00,VWS V13.01,2013-08-27 19:38:00,
2013-08-27 15:39:00,85.7,73.5,29.93,NNE,22,0.0,2.0,67,0.00,,---,0.00,VWS V13.01,2013-08-27 19:39:00,
2013-08-27 15:40:00,85.5,72.4,29.93,NNE,23,0.0,3.0,65,0.00,,---,0.00,VWS V13.01,2013-08-27 19:40:00,
2013-08-27 15:41:00,85.5,72.4,29.93,NNE,23,0.0,3.0,65,0.00,,---,0.00,VWS V13.01,2013-08-27 19:41:00,
2013-08-27 15:42:00,85.3,72.7,29.93,NNE,23,1.0,3.0,66,0.00,,---,0.00,VWS V13.01,2013-08-27 19:42:00,
2013-08-27 15:43:00,85.3,73.1,29.93,NNE,23,0.0,3.0,67,0.00,,---,0.00,VWS V13.01,2013-08-27 19:43:00,
2013-08-27 15:44:00,85.4,73.2,29.93,NNE,22,0.0,3.0,67,0.00,,---,0.00,VWS V13.01,2013-08-27 19:44:00,
2013-08-27 15:45:00,85.4,72.8,29.93,NNE,23,0.0,3.0,66,0.00,,---,0.00,VWS V13.01,2013-08-27 19:45:00,
2013-08-27 15:46:00,85.6,73.4,29.92,NNE,22,0.0,3.0,67,0.00,,---,0.00,VWS V13.01,2013-08-27 19:46:00,
2013-08-27 15:47:00,85.7,73.0,29.92,NNE,23,0.0,3.0,66,0.00,,---,0.00,VWS V13.01,2013-08-27 19:47:00,
2013-08-27 15:49:00,85.8,74.9,29.92,NNE,23,0.0,3.0,70,0.00,,---,0.00,VWS V13.01,2013-08-27 19:49:00,
2013-08-27 15:50:00,85.9,74.1,29.92,NNE,22,0.0,3.0,68,0.00,,---,0.00,VWS V13.01,2013-08-27 19:50:00,
2013-08-27 15:52:00,85.8,73.6,29.92,NNE,23,0.0,3.0,67,0.00,,---,0.00,VWS V13.01,2013-08-27 19:52:00,
2013-08-27 15:54:00,85.7,73.0,29.92,NNE,23,0.0,3.0,66,0.00,,---,0.00,VWS V13.01,2013-08-27 19:54:00,
2013-08-27 15:55:00,85.7,72.6,29.92,NNE,22,0.0,3.0,65,0.00,,---,0.00,VWS V13.01,2013-08-27 19:55:00,
2013-08-27 15:57:00,85.9,72.8,29.92,NNE,22,0.0,3.0,65,0.00,,---,0.00,VWS V13.01,2013-08-27 19:57:00,
2013-08-27 15:59:00,86.0,72.4,29.92,NNE,23,0.0,3.0,64,0.00,,---,0.00,VWS V13.01,2013-08-27 19:59:00,
2013-08-27 16:00:00,86.1,71.6,29.92,NNE,22,0.0,3.0,62,0.00,,---,0.00,VWS V13.01,2013-08-27 20:00:00,
2013-08-27 16:01:00,86.2,71.7,29.92,NNE,23,0.0,3.0,62,0.00,,---,0.00,VWS V13.01,2013-08-27 20:01:00,
2013-08-27 16:02:00,86.1,73.4,29.92,NNE,23,0.0,1.0,66,0.00,,---,0.00,VWS V13.01,2013-08-27 20:02:00,
2013-08-27 16:04:00,85.7,73.0,29.92,NNE,22,0.0,1.0,66,0.00,,---,0.00,VWS V13.01,2013-08-27 20:04:00,
2013-08-27 16:05:00,85.6,72.5,29.92,NNE,23,0.0,1.0,65,0.00,,---,0.00,VWS V13.01,2013-08-27 20:05:00,
2013-08-27 16:06:00,85.5,72.4,29.92,NNE,23,0.0,1.0,65,0.00,,---,0.00,VWS V13.01,2013-08-27 20:06:00,
2013-08-27 16:07:00,85.5,71.5,29.92,NNE,22,0.0,1.0,63,0.00,,---,0.00,VWS V13.01,2013-08-27 20:07:00,
2013-08-27 16:09:00,85.7,72.6,29.92,NNE,23,0.0,1.0,65,0.00,,---,0.00,VWS V13.01,2013-08-27 20:09:00,
2013-08-27 16:10:00,85.8,72.2,29.92,NNE,23,0.0,1.0,64,0.00,,---,0.00,VWS V13.01,2013-08-27 20:10:00,
2013-08-27 16:11:00,85.9,71.8,29.92,NNE,23,0.0,1.0,63,0.00,,---,0.00,VWS V13.01,2013-08-27 20:11:00,
2013-08-27 16:12:00,86.0,71.0,29.92,NNE,22,0.0,1.0,61,0.00,,---,0.00,VWS V13.01,2013-08-27 20:12:00,
2013-08-27 16:15:00,86.0,71.9,29.92,NNE,23,0.0,1.0,63,0.00,,---,0.00,VWS V13.01,2013-08-27 20:15:00,
2013-08-27 16:16:00,86.0,72.4,29.92,NNE,23,0.0,1.0,64,0.00,,---,0.00,VWS V13.01,2013-08-27 20:16:00,
2013-08-27 16:17:00,86.0,73.3,29.92,NNE,23,0.0,1.0,66,0.00,,---,0.00,VWS V13.01,2013-08-27 20:17:00,
2013-08-27 16:20:00,85.8,72.7,29.92,NNE,23,0.0,1.0,65,0.00,,---,0.00,VWS V13.01,2013-08-27 20:20:00,
2013-08-27 16:21:00,85.6,73.8,29.92,NNE,23,0.0,1.0,68,0.00,,---,0.00,VWS V13.01,2013-08-27 20:21:00,
2013-08-27 16:22:00,85.5,74.2,29.92,NNE,23,0.0,1.0,69,0.00,,---,0.00,VWS V13.01,2013-08-27 20:22:00,
2013-08-27 16:23:00,85.5,73.7,29.92,NNE,23,0.0,1.0,68,0.00,,---,0.00,VWS V13.01,2013-08-27 20:23:00,
2013-08-27 16:25:00,85.5,74.2,29.92,NNE,23,1.0,1.0,69,0.00,,---,0.00,VWS V13.01,2013-08-27 20:25:00,
2013-08-27 16:26:00,85.4,74.9,29.92,NNE,23,0.0,1.0,71,0.00,,---,0.00,VWS V13.01,2013-08-27 20:26:00,
2013-08-27 16:28:00,85.4,74.5,29.92,NNE,22,0.0,1.0,70,0.00,,---,0.00,VWS V13.01,2013-08-27 20:28:00,
2013-08-27 16:30:00,85.3,74.0,29.92,NNE,23,3.0,5.0,69,0.00,,---,0.00,VWS V13.01,2013-08-27 20:30:00,
2013-08-27 16:31:00,85.3,74.0,29.92,NNE,23,2.0,5.0,69,0.00,,---,0.00,VWS V13.01,2013-08-27 20:31:00,
2013-08-27 16:33:00,85.4,72.8,29.92,NNE,23,0.0,2.0,66,0.00,,---,0.00,VWS V13.01,2013-08-27 20:33:00,
2013-08-27 16:35:00,85.5,72.8,29.92,NNE,23,0.0,2.0,66,0.00,,---,0.00,VWS V13.01,2013-08-27 20:35:00,
2013-08-27 16:36:00,85.5,73.3,29.92,NNE,23,0.0,2.0,67,0.00,,---,0.00,VWS V13.01,2013-08-27 20:36:00,
2013-08-27 16:38:00,85.6,73.4,29.92,NNE,23,0.0,2.0,67,0.00,,---,0.00,VWS V13.01,2013-08-27 20:38:00,
2013-08-27 16:40:00,85.4,74.1,29.92,NNE,23,0.0,3.0,69,0.00,,---,0.00,VWS V13.01,2013-08-27 20:40:00,
2013-08-27 16:41:00,85.5,74.2,29.92,NNE,23,0.0,3.0,69,0.00,,---,0.00,VWS V13.01,2013-08-27 20:41:00,
2013-08-27 16:43:00,85.5,73.3,29.92,NNE,25,0.0,4.0,67,0.00,,---,0.00,VWS V13.01,2013-08-27 20:43:00,
2013-08-27 16:45:00,85.3,74.4,29.92,NNE,27,0.0,4.0,70,0.00,,---,0.00,VWS V13.01,2013-08-27 20:45:00,
2013-08-27 16:46:00,85.1,73.4,29.92,NNE,27,0.0,4.0,68,0.00,,---,0.00,VWS V13.01,2013-08-27 20:46:00,
2013-08-27 16:48:00,85.2,73.9,29.92,NNE,26,0.0,4.0,69,0.00,,---,0.00,VWS V13.01,2013-08-27 20:48:00,
2013-08-27 16:50:00,85.3,73.6,29.92,NNE,33,0.0,4.0,68,0.00,,---,0.00,VWS V13.01,2013-08-27 20:50:00,
2013-08-27 16:51:00,85.3,73.6,29.92,NE,34,0.0,4.0,68,0.00,,---,0.00,VWS V13.01,2013-08-27 20:51:00,
2013-08-27 16:53:00,85.3,73.1,29.92,NE,38,2.0,4.0,67,0.00,,---,0.00,VWS V13.01,2013-08-27 20:53:00,
2013-08-27 16:55:00,85.0,73.7,29.92,NE,34,3.0,4.0,69,0.00,,---,0.00,VWS V13.01,2013-08-27 20:55:00,
2013-08-27 16:56:00,85.0,73.7,29.92,NNE,28,2.0,5.0,69,0.00,,---,0.00,VWS V13.01,2013-08-27 20:56:00,
2013-08-27 16:57:00,85.0,73.7,29.92,North,360,3.0,7.0,69,0.00,,---,0.00,VWS V13.01,2013-08-27 20:57:00,
2013-08-27 16:58:00,85.1,73.4,29.92,North,5,0.0,7.0,68,0.00,,---,0.00,VWS V13.01,2013-08-27 20:58:00,
2013-08-27 17:01:00,85.2,73.0,29.92,North,5,1.0,7.0,67,0.00,,---,0.00,VWS V13.01,2013-08-27 21:01:00,
2013-08-27 17:02:00,85.1,73.4,29.92,North,5,0.0,1.0,68,0.00,,---,0.00,VWS V13.01,2013-08-27 21:02:00,
2013-08-27 17:03:00,85.1,73.8,29.92,North,5,1.0,2.0,69,0.00,,---,0.00,VWS V13.01,2013-08-27 21:03:00,
2013-08-27 17:06:00,84.8,73.5,29.92,North,360,3.0,3.0,69,0.00,,---,0.00,VWS V13.01,2013-08-27 21:06:00,
2013-08-27 17:07:00,84.6,72.4,29.92,North,360,1.0,3.0,67,0.00,,---,0.00,VWS V13.01,2013-08-27 21:07:00,
2013-08-27 17:08:00,84.5,73.7,29.92,North,5,0.0,3.0,70,0.00,,---,0.00,VWS V13.01,2013-08-27 21:08:00,
2013-08-27 17:09:00,84.5,73.2,29.92,North,360,0.0,3.0,69,0.00,,---,0.00,VWS V13.01,2013-08-27 21:09:00,
2013-08-27 17:11:00,84.4,74.0,29.92,North,5,3.0,3.0,71,0.00,,---,0.00,VWS V13.01,2013-08-27 21:11:00,
2013-08-27 17:13:00,84.2,73.8,29.92,North,5,0.0,3.0,71,0.00,,---,0.00,VWS V13.01,2013-08-27 21:13:00,
2013-08-27 17:14:00,84.1,73.3,29.92,North,360,0.0,3.0,70,0.00,,---,0.00,VWS V13.01,2013-08-27 21:14:00,
2013-08-27 17:16:00,84.3,72.6,29.92,North,360,0.0,3.0,68,0.00,,---,0.00,VWS V13.01,2013-08-27 21:16:00,
2013-08-27 17:17:00,84.4,72.7,29.92,North,360,0.0,3.0,68,0.00,,---,0.00,VWS V13.01,2013-08-27 21:17:00,
2013-08-27 17:18:00,84.4,73.1,29.92,North,360,0.0,3.0,69,0.00,,---,0.00,VWS V13.01,2013-08-27 21:18:00,
2013-08-27 17:19:00,84.2,73.4,29.93,North,5,0.0,3.0,70,0.00,,---,0.00,VWS V13.01,2013-08-27 21:19:00,
2013-08-27 17:21:00,84.2,72.5,29.92,North,5,0.0,5.0,68,0.00,,---,0.00,VWS V13.01,2013-08-27 21:21:00,
2013-08-27 17:22:00,84.2,72.9,29.93,North,5,0.0,5.0,69,0.00,,---,0.00,VWS V13.01,2013-08-27 21:22:00,
2013-08-27 17:23:00,84.1,72.4,29.93,North,5,0.0,5.0,68,0.00,,---,0.00,VWS V13.01,2013-08-27 21:23:00,
2013-08-27 17:24:00,84.1,72.8,29.92,North,5,0.0,5.0,69,0.00,,---,0.00,VWS V13.01,2013-08-27 21:24:00,
2013-08-27 17:26:00,84.1,72.4,29.92,North,5,0.0,5.0,68,0.00,,---,0.00,VWS V13.01,2013-08-27 21:26:00,
2013-08-27 17:27:00,84.1,73.3,29.92,North,360,0.0,5.0,70,0.00,,---,0.00,VWS V13.01,2013-08-27 21:27:00,
2013-08-27 17:28:00,84.1,72.8,29.92,North,5,0.0,5.0,69,0.00,,---,0.00,VWS V13.01,2013-08-27 21:28:00,
2013-08-27 17:29:00,84.1,74.5,29.92,North,360,0.0,5.0,73,0.00,,---,0.00,VWS V13.01,2013-08-27 21:29:00,
2013-08-27 17:31:00,84.1,71.5,29.92,North,5,0.0,5.0,66,0.00,,---,0.00,VWS V13.01,2013-08-27 21:31:00,
2013-08-27 17:32:00,84.3,72.2,29.92,North,5,0.0,0.0,67,0.00,,---,0.00,VWS V13.01,2013-08-27 21:32:00,
2013-08-27 17:33:00,84.4,72.2,29.92,North,360,0.0,0.0,67,0.00,,---,0.00,VWS V13.01,2013-08-27 21:33:00,
2013-08-27 17:35:00,84.4,71.8,29.92,North,5,0.0,0.0,66,0.00,,---,0.00,VWS V13.01,2013-08-27 21:35:00,
2013-08-27 17:36:00,84.5,71.9,29.92,North,5,0.0,0.0,66,0.00,,---,0.00,VWS V13.01,2013-08-27 21:36:00,
2013-08-27 17:37:00,84.5,72.3,29.92,North,360,0.0,1.0,67,0.00,,---,0.00,VWS V13.01,2013-08-27 21:37:00,
2013-08-27 17:38:00,84.5,72.3,29.92,North,5,0.0,1.0,67,0.00,,---,0.00,VWS V13.01,2013-08-27 21:38:00,
2013-08-27 17:40:00,84.5,72.8,29.92,North,5,0.0,1.0,68,0.00,,---,0.00,VWS V13.01,2013-08-27 21:40:00,
2013-08-27 17:41:00,84.3,72.6,29.92,North,360,0.0,1.0,68,0.00,,---,0.00,VWS V13.01,2013-08-27 21:41:00,
2013-08-27 17:42:00,84.3,74.3,29.92,North,5,0.0,1.0,72,0.00,,---,0.00,VWS V13.01,2013-08-27 21:42:00,
2013-08-27 17:43:00,84.1,72.8,29.92,North,360,0.0,1.0,69,0.00,,---,0.00,VWS V13.01,2013-08-27 21:43:00,
2013-08-27 17:45:00,84.1,72.4,29.92,North,5,0.0,1.0,68,0.00,,---,0.00,VWS V13.01,2013-08-27 21:45:00,
2013-08-27 17:46:00,84.1,72.8,29.92,North,5,0.0,1.0,69,0.00,,---,0.00,VWS V13.01,2013-08-27 21:46:00,
2013-08-27 17:47:00,84.2,73.4,29.92,North,5,0.0,1.0,70,0.00,,---,0.00,VWS V13.01,2013-08-27 21:47:00,
2013-08-27 17:48:00,84.1,74.5,29.92,North,5,0.0,1.0,73,0.00,,---,0.00,VWS V13.01,2013-08-27 21:48:00,
2013-08-27 17:50:00,83.6,74.0,29.92,North,5,0.0,1.0,73,0.00,,---,0.00,VWS V13.01,2013-08-27 21:50:00,
2013-08-27 17:51:00,83.6,73.6,29.92,North,360,0.0,1.0,72,0.00,,---,0.00,VWS V13.01,2013-08-27 21:51:00,
2013-08-27 17:52:00,83.6,73.2,29.92,North,5,0.0,1.0,71,0.00,,---,0.00,VWS V13.01,2013-08-27 21:52:00,
2013-08-27 17:53:00,83.6,73.2,29.92,North,5,0.0,1.0,71,0.00,,---,0.00,VWS V13.01,2013-08-27 21:53:00,
2013-08-27 17:56:00,83.7,74.1,29.92,North,5,0.0,1.0,73,0.00,,---,0.00,VWS V13.01,2013-08-27 21:56:00,
2013-08-27 17:57:00,83.6,74.4,29.92,North,5,0.0,1.0,74,0.00,,---,0.00,VWS V13.01,2013-08-27 21:57:00,
2013-08-27 17:58:00,83.6,74.4,29.92,North,5,0.0,1.0,74,0.00,,---,0.00,VWS V13.01,2013-08-27 21:58:00,
2013-08-27 17:59:00,83.6,74.0,29.92,North,360,0.0,1.0,73,0.00,,---,0.00,VWS V13.01,2013-08-27 21:59:00,
2013-08-27 18:01:00,83.5,75.5,29.92,North,5,0.0,1.0,77,0.00,,---,0.00,VWS V13.01,2013-08-27 22:01:00,
2013-08-27 18:02:00,83.6,73.2,29.92,North,360,0.0,0.0,71,0.00,,---,0.00,VWS V13.01,2013-08-27 22:02:00,
2013-08-27 18:03:00,83.7,73.3,29.92,North,5,0.0,0.0,71,0.00,,---,0.00,VWS V13.01,2013-08-27 22:03:00,
2013-08-27 18:04:00,83.7,74.5,29.92,North,360,0.0,1.0,74,0.00,,---,0.00,VWS V13.01,2013-08-27 22:04:00,
2013-08-27 18:06:00,83.9,73.5,29.92,North,5,0.0,1.0,71,0.00,,---,0.00,VWS V13.01,2013-08-27 22:06:00,
2013-08-27 18:07:00,83.9,73.5,29.92,North,5,0.0,1.0,71,0.00,,---,0.00,VWS V13.01,2013-08-27 22:07:00,
2013-08-27 18:08:00,83.9,73.1,29.92,North,5,0.0,1.0,70,0.00,,---,0.00,VWS V13.01,2013-08-27 22:08:00,
2013-08-27 18:09:00,83.9,72.7,29.92,North,5,0.0,1.0,69,0.00,,---,0.00,VWS V13.01,2013-08-27 22:09:00,
2013-08-27 18:11:00,83.9,72.7,29.92,North,360,0.0,1.0,69,0.00,,---,0.00,VWS V13.01,2013-08-27 22:11:00,
2013-08-27 18:12:00,83.9,72.7,29.92,North,360,0.0,1.0,69,0.00,,---,0.00,VWS V13.01,2013-08-27 22:12:00,
2013-08-27 18:13:00,83.9,72.7,29.92,North,360,0.0,1.0,69,0.00,,---,0.00,VWS V13.01,2013-08-27 22:13:00,
2013-08-27 18:14:00,83.9,72.7,29.92,North,5,0.0,1.0,69,0.00,,---,0.00,VWS V13.01,2013-08-27 22:14:00,
2013-08-27 18:16:00,83.6,73.6,29.92,North,5,0.0,1.0,72,0.00,,---,0.00,VWS V13.01,2013-08-27 22:16:00,
2013-08-27 18:17:00,83.5,73.9,29.92,North,360,0.0,1.0,73,0.00,,---,0.00,VWS V13.01,2013-08-27 22:17:00,
2013-08-27 18:18:00,83.4,73.4,29.92,North,360,0.0,1.0,72,0.00,,---,0.00,VWS V13.01,2013-08-27 22:18:00,
2013-08-27 18:19:00,83.4,73.4,29.92,North,5,0.0,1.0,72,0.00,,---,0.00,VWS V13.01,2013-08-27 22:19:00,
2013-08-27 18:21:00,83.1,74.0,29.92,North,5,0.0,1.0,74,0.00,,---,0.00,VWS V13.01,2013-08-27 22:21:00,
2013-08-27 18:22:00,83.0,73.9,29.92,North,360,0.0,1.0,74,0.00,,---,0.00,VWS V13.01,2013-08-27 22:22:00,
2013-08-27 18:23:00,82.9,73.8,29.92,North,5,0.0,1.0,74,0.00,,---,0.00,VWS V13.01,2013-08-27 22:23:00,
2013-08-27 18:24:00,82.9,74.2,29.92,North,5,0.0,1.0,75,0.00,,---,0.00,VWS V13.01,2013-08-27 22:24:00,
2013-08-27 18:26:00,82.6,73.9,29.92,North,5,0.0,1.0,75,0.00,,---,0.00,VWS V13.01,2013-08-27 22:26:00,
2013-08-27 18:28:00,82.5,73.4,29.92,North,5,0.0,1.0,74,0.00,,---,0.00,VWS V13.01,2013-08-27 22:28:00,
2013-08-27 18:29:00,82.5,73.4,29.92,North,360,0.0,1.0,74,0.00,,---,0.00,VWS V13.01,2013-08-27 22:29:00,
2013-08-27 18:31:00,82.4,73.7,29.92,North,5,0.0,1.0,75,0.00,,---,0.00,VWS V13.01,2013-08-27 22:31:00,
2013-08-27 18:33:00,82.4,74.1,29.92,North,5,0.0,0.0,76,0.00,,---,0.00,VWS V13.01,2013-08-27 22:33:00,
2013-08-27 18:34:00,82.3,74.0,29.92,North,5,0.0,0.0,76,0.00,,---,0.00,VWS V13.01,2013-08-27 22:34:00,
2013-08-27 18:35:00,82.3,74.0,29.92,North,5,0.0,0.0,76,0.00,,---,0.00,VWS V13.01,2013-08-27 22:35:00,
2013-08-27 18:36:00,82.2,73.9,29.92,North,5,0.0,1.0,76,0.00,,---,0.00,VWS V13.01,2013-08-27 22:36:00,
2013-08-27 18:38:00,82.2,73.9,29.92,North,5,0.0,1.0,76,0.00,,---,0.00,VWS V13.01,2013-08-27 22:38:00,
2013-08-27 18:39:00,82.2,73.9,29.92,North,5,0.0,1.0,76,0.00,,---,0.00,VWS V13.01,2013-08-27 22:39:00,
2013-08-27 18:40:00,82.2,73.9,29.92,North,5,0.0,1.0,76,0.00,,---,0.00,VWS V13.01,2013-08-27 22:40:00,
2013-08-27 18:42:00,82.1,73.8,29.92,North,360,0.0,1.0,76,0.00,,---,0.00,VWS V13.01,2013-08-27 22:42:00,
2013-08-27 18:43:00,82.1,74.6,29.92,North,5,0.0,1.0,78,0.00,,---,0.00,VWS V13.01,2013-08-27 22:43:00,
2013-08-27 18:45:00,81.9,73.6,29.92,North,5,0.0,1.0,76,0.00,,---,0.00,VWS V13.01,2013-08-27 22:45:00,
2013-08-27 18:47:00,81.9,74.0,29.92,North,5,0.0,1.0,77,0.00,,---,0.00,VWS V13.01,2013-08-27 22:47:00,
2013-08-27 18:48:00,81.9,73.6,29.92,North,5,0.0,1.0,76,0.00,,---,0.00,VWS V13.01,2013-08-27 22:48:00,
2013-08-27 18:50:00,82.0,73.7,29.92,North,5,0.0,1.0,76,0.00,,---,0.00,VWS V13.01,2013-08-27 22:50:00,
2013-08-27 18:52:00,82.0,74.1,29.92,North,5,0.0,1.0,77,0.00,,---,0.00,VWS V13.01,2013-08-27 22:52:00,
2013-08-27 18:53:00,81.9,74.0,29.92,North,5,0.0,1.0,77,0.00,,---,0.00,VWS V13.01,2013-08-27 22:53:00,
2013-08-27 18:54:00,81.9,74.0,29.92,North,5,0.0,1.0,77,0.00,,---,0.00,VWS V13.01,2013-08-27 22:54:00,
2013-08-27 18:55:00,81.9,74.0,29.92,North,360,0.0,1.0,77,0.00,,---,0.00,VWS V13.01,2013-08-27 22:55:00,
2013-08-27 18:57:00,81.8,73.9,29.92,North,5,0.0,1.0,77,0.00,,---,0.00,VWS V13.01,2013-08-27 22:57:00,
2013-08-27 18:59:00,81.7,73.8,29.92,North,5,0.0,1.0,77,0.00,,---,0.00,VWS V13.01,2013-08-27 22:59:00,
2013-08-27 19:00:00,81.8,74.3,29.92,North,5,0.0,1.0,78,0.00,,---,0.00,VWS V13.01,2013-08-27 23:00:00,
2013-08-27 19:03:00,81.7,74.2,29.92,North,360,0.0,0.0,78,0.00,,---,0.00,VWS V13.01,2013-08-27 23:03:00,
2013-08-27 19:04:00,81.6,74.5,29.92,North,5,0.0,0.0,79,0.00,,---,0.00,VWS V13.01,2013-08-27 23:04:00,
2013-08-27 19:05:00,81.5,74.4,29.92,North,5,0.0,0.0,79,0.00,,---,0.00,VWS V13.01,2013-08-27 23:05:00,
2013-08-27 19:08:00,81.4,74.3,29.92,North,360,0.0,0.0,79,0.00,,---,0.00,VWS V13.01,2013-08-27 23:08:00,
2013-08-27 19:09:00,81.3,74.2,29.92,North,5,0.0,0.0,79,0.00,,---,0.00,VWS V13.01,2013-08-27 23:09:00,
2013-08-27 19:10:00,81.2,74.1,29.92,North,360,0.0,0.0,79,0.00,,---,0.00,VWS V13.01,2013-08-27 23:10:00,
2013-08-27 19:13:00,81.1,74.0,29.92,North,360,0.0,0.0,79,0.00,,---,0.00,VWS V13.01,2013-08-27 23:13:00,
2013-08-27 19:14:00,81.1,74.3,29.92,North,5,0.0,0.0,80,0.00,,---,0.00,VWS V13.01,2013-08-27 23:14:00,
2013-08-27 19:15:00,81.0,73.9,29.92,North,360,0.0,0.0,79,0.00,,---,0.00,VWS V13.01,2013-08-27 23:15:00,
2013-08-27 19:18:00,81.0,74.2,29.92,North,5,0.0,0.0,80,0.00,,---,0.00,VWS V13.01,2013-08-27 23:18:00,
2013-08-27 19:19:00,81.0,74.2,29.92,North,5,0.0,0.0,80,0.00,,---,0.00,VWS V13.01,2013-08-27 23:19:00,
2013-08-27 19:20:00,81.0,74.2,29.92,North,360,0.0,0.0,80,0.00,,---,0.00,VWS V13.01,2013-08-27 23:20:00,
2013-08-27 19:23:00,80.9,74.5,29.92,North,5,0.0,0.0,81,0.00,,---,0.00,VWS V13.01,2013-08-27 23:23:00,
2013-08-27 19:24:00,80.9,74.5,29.92,North,5,0.0,0.0,81,0.00,,---,0.00,VWS V13.01,2013-08-27 23:24:00,
2013-08-27 19:25:00,80.8,74.4,29.92,North,5,0.0,0.0,81,0.00,,---,0.00,VWS V13.01,2013-08-27 23:25:00,
2013-08-27 19:28:00,80.7,74.3,29.92,North,360,0.0,0.0,81,0.00,,---,0.00,VWS V13.01,2013-08-27 23:28:00,
2013-08-27 19:29:00,80.5,74.1,29.92,North,5,0.0,0.0,81,0.00,,---,0.00,VWS V13.01,2013-08-27 23:29:00,
2013-08-27 19:30:00,80.4,73.7,29.92,North,5,0.0,0.0,80,0.00,,---,0.00,VWS V13.01,2013-08-27 23:30:00,
2013-08-27 19:33:00,80.2,73.8,29.92,North,5,0.0,0.0,81,0.00,,---,0.00,VWS V13.01,2013-08-27 23:33:00,
2013-08-27 19:34:00,80.1,74.5,29.92,North,5,0.0,0.0,83,0.00,,---,0.00,VWS V13.01,2013-08-27 23:34:00,
2013-08-27 19:35:00,80.1,74.5,29.92,North,5,0.0,0.0,83,0.00,,---,0.00,VWS V13.01,2013-08-27 23:35:00,
2013-08-27 19:38:00,79.7,74.4,29.92,North,5,0.0,0.0,84,0.00,,---,0.00,VWS V13.01,2013-08-27 23:38:00,
2013-08-27 19:40:00,79.6,74.3,29.92,North,360,0.0,0.0,84,0.00,,---,0.00,VWS V13.01,2013-08-27 23:40:00,
2013-08-27 19:43:00,79.6,74.3,29.91,North,5,0.0,0.0,84,0.00,,---,0.00,VWS V13.01,2013-08-27 23:43:00,
2013-08-27 19:45:00,79.7,74.4,29.91,North,5,0.0,0.0,84,0.00,,---,0.00,VWS V13.01,2013-08-27 23:45:00,
2013-08-27 19:46:00,79.6,74.3,29.91,North,5,0.0,0.0,84,0.00,,---,0.00,VWS V13.01,2013-08-27 23:46:00,
2013-08-27 19:48:00,79.6,74.3,29.91,North,5,0.0,1.0,84,0.00,,---,0.00,VWS V13.01,2013-08-27 23:48:00,
2013-08-27 19:50:00,79.6,74.3,29.91,North,5,0.0,1.0,84,0.00,,---,0.00,VWS V13.01,2013-08-27 23:50:00,
2013-08-27 19:51:00,79.6,74.3,29.91,North,5,0.0,1.0,84,0.00,,---,0.00,VWS V13.01,2013-08-27 23:51:00,
2013-08-27 19:53:00,79.5,74.2,29.92,North,5,0.0,1.0,84,0.00,,---,0.00,VWS V13.01,2013-08-27 23:53:00,
2013-08-27 19:55:00,79.4,74.2,29.92,North,5,0.0,1.0,84,0.00,,---,0.00,VWS V13.01,2013-08-27 23:55:00,
2013-08-27 19:56:00,79.4,74.2,29.92,North,5,0.0,1.0,84,0.00,,---,0.00,VWS V13.01,2013-08-27 23:56:00,
2013-08-27 19:58:00,79.1,74.2,29.92,North,5,0.0,1.0,85,0.00,,---,0.00,VWS V13.01,2013-08-27 23:58:00,
2013-08-27 20:00:00,79.0,74.1,29.92,North,5,0.0,1.0,85,0.00,,---,0.00,VWS V13.01,2013-08-28 00:00:00,
2013-08-27 20:01:00,79.0,74.1,29.92,North,5,0.0,1.0,85,0.00,,---,0.00,VWS V13.01,2013-08-28 00:01:00,
2013-08-27 20:03:00,78.9,74.4,29.92,North,360,0.0,0.0,86,0.00,,---,0.00,VWS V13.01,2013-08-28 00:03:00,
2013-08-27 20:05:00,78.8,74.3,29.92,North,5,0.0,0.0,86,0.00,,---,0.00,VWS V13.01,2013-08-28 00:05:00,
2013-08-27 20:06:00,78.8,74.3,29.91,North,360,0.0,0.0,86,0.00,,---,0.00,VWS V13.01,2013-08-28 00:06:00,
2013-08-27 20:08:00,78.7,74.2,29.91,North,5,0.0,0.0,86,0.00,,---,0.00,VWS V13.01,2013-08-28 00:08:00,
2013-08-27 20:10:00,78.7,74.2,29.92,North,360,0.0,0.0,86,0.00,,---,0.00,VWS V13.01,2013-08-28 00:10:00,
2013-08-27 20:11:00,78.7,74.2,29.92,North,5,0.0,0.0,86,0.00,,---,0.00,VWS V13.01,2013-08-28 00:11:00,
2013-08-27 20:14:00,78.4,73.9,29.92,North,360,0.0,0.0,86,0.00,,---,0.00,VWS V13.01,2013-08-28 00:14:00,
2013-08-27 20:15:00,78.4,73.9,29.92,North,5,0.0,0.0,86,0.00,,---,0.00,VWS V13.01,2013-08-28 00:15:00,
2013-08-27 20:16:00,78.3,73.8,29.92,North,360,0.0,0.0,86,0.00,,---,0.00,VWS V13.01,2013-08-28 00:16:00,
2013-08-27 20:19:00,78.2,74.0,29.92,North,5,0.0,0.0,87,0.00,,---,0.00,VWS V13.01,2013-08-28 00:19:00,
2013-08-27 20:21:00,78.1,73.9,29.92,North,5,0.0,0.0,87,0.00,,---,0.00,VWS V13.01,2013-08-28 00:21:00,
2013-08-27 20:24:00,78.1,73.9,29.91,North,360,0.0,0.0,87,0.00,,---,0.00,VWS V13.01,2013-08-28 00:24:00,
2013-08-27 20:26:00,78.0,73.8,29.91,North,5,0.0,0.0,87,0.00,,---,0.00,VWS V13.01,2013-08-28 00:26:00,
2013-08-27 20:29:00,78.0,73.5,29.91,North,5,0.0,0.0,86,0.00,,---,0.00,VWS V13.01,2013-08-28 00:29:00,
2013-08-27 20:31:00,78.0,73.5,29.91,North,5,0.0,0.0,86,0.00,,---,0.00,VWS V13.01,2013-08-28 00:31:00,
2013-08-27 20:35:00,78.0,73.5,29.91,North,5,0.0,0.0,86,0.00,,---,0.00,VWS V13.01,2013-08-28 00:35:00,
2013-08-27 20:36:00,77.9,73.4,29.91,North,360,0.0,0.0,86,0.00,,---,0.00,VWS V13.01,2013-08-28 00:36:00,
2013-08-27 20:37:00,77.9,73.4,29.91,North,360,0.0,0.0,86,0.00,,---,0.00,VWS V13.01,2013-08-28 00:37:00,
2013-08-27 20:40:00,77.7,73.2,29.91,North,5,0.0,0.0,86,0.00,,---,0.00,VWS V13.01,2013-08-28 00:40:00,
2013-08-27 20:41:00,77.6,73.1,29.91,North,360,0.0,0.0,86,0.00,,---,0.00,VWS V13.01,2013-08-28 00:41:00,
2013-08-27 20:42:00,77.7,73.2,29.91,North,5,0.0,0.0,86,0.00,,---,0.00,VWS V13.01,2013-08-28 00:42:00,
2013-08-27 20:46:00,77.5,73.3,29.92,North,5,0.0,0.0,87,0.00,,---,0.00,VWS V13.01,2013-08-28 00:46:00,
2013-08-27 20:47:00,77.5,73.3,29.92,North,5,0.0,0.0,87,0.00,,---,0.00,VWS V13.01,2013-08-28 00:47:00,
2013-08-27 20:51:00,77.3,73.5,29.92,North,360,0.0,0.0,88,0.00,,---,0.00,VWS V13.01,2013-08-28 00:51:00,
2013-08-27 20:52:00,77.2,73.4,29.92,North,5,0.0,0.0,88,0.00,,---,0.00,VWS V13.01,2013-08-28 00:52:00,
2013-08-27 20:56:00,77.1,73.3,29.92,North,360,0.0,0.0,88,0.00,,---,0.00,VWS V13.01,2013-08-28 00:56:00,
2013-08-27 20:57:00,77.1,73.3,29.92,North,360,0.0,0.0,88,0.00,,---,0.00,VWS V13.01,2013-08-28 00:57:00,
2013-08-27 21:01:00,76.8,73.0,29.92,North,5,0.0,0.0,88,0.00,,---,0.00,VWS V13.01,2013-08-28 01:01:00,
2013-08-27 21:02:00,76.7,73.2,29.92,North,360,0.0,0.0,89,0.00,,---,0.00,VWS V13.01,2013-08-28 01:02:00,
2013-08-27 21:03:00,76.7,73.2,29.92,North,360,0.0,0.0,89,0.00,,---,0.00,VWS V13.01,2013-08-28 01:03:00,
2013-08-27 21:06:00,76.6,73.4,29.92,North,5,0.0,0.0,90,0.00,,---,0.00,VWS V13.01,2013-08-28 01:06:00,
2013-08-27 21:07:00,76.6,73.4,29.92,North,360,0.0,0.0,90,0.00,,---,0.00,VWS V13.01,2013-08-28 01:07:00,
2013-08-27 21:08:00,76.5,73.3,29.92,North,360,0.0,0.0,90,0.00,,---,0.00,VWS V13.01,2013-08-28 01:08:00,
2013-08-27 21:11:00,76.5,73.3,29.92,North,360,0.0,0.0,90,0.00,,---,0.00,VWS V13.01,2013-08-28 01:11:00,
2013-08-27 21:12:00,76.4,72.9,29.92,North,360,0.0,1.0,89,0.00,,---,0.00,VWS V13.01,2013-08-28 01:12:00,
2013-08-27 21:13:00,76.4,72.9,29.92,North,360,0.0,1.0,89,0.00,,---,0.00,VWS V13.01,2013-08-28 01:13:00,
2013-08-27 21:17:00,76.2,73.1,29.92,North,360,0.0,1.0,90,0.00,,---,0.00,VWS V13.01,2013-08-28 01:17:00,
2013-08-27 21:18:00,76.2,73.1,29.92,North,5,0.0,1.0,90,0.00,,---,0.00,VWS V13.01,2013-08-28 01:18:00,
2013-08-27 21:22:00,76.1,73.0,29.92,North,5,0.0,1.0,90,0.00,,---,0.00,VWS V13.01,2013-08-28 01:22:00,
2013-08-27 21:23:00,76.1,73.0,29.92,North,360,0.0,1.0,90,0.00,,---,0.00,VWS V13.01,2013-08-28 01:23:00,
2013-08-27 21:27:00,76.0,72.9,29.92,North,360,0.0,1.0,90,0.00,,---,0.00,VWS V13.01,2013-08-28 01:27:00,
2013-08-27 21:28:00,76.0,72.9,29.92,North,360,0.0,1.0,90,0.00,,---,0.00,VWS V13.01,2013-08-28 01:28:00,
2013-08-27 21:32:00,75.8,73.0,29.92,North,360,0.0,0.0,91,0.00,,---,0.00,VWS V13.01,2013-08-28 01:32:00,
2013-08-27 21:33:00,75.8,73.0,29.92,North,360,0.0,0.0,91,0.00,,---,0.00,VWS V13.01,2013-08-28 01:33:00,
2013-08-27 21:37:00,75.7,72.9,29.92,North,5,0.0,1.0,91,0.00,,---,0.00,VWS V13.01,2013-08-28 01:37:00,
2013-08-27 21:38:00,75.7,73.2,29.92,North,5,0.0,1.0,92,0.00,,---,0.00,VWS V13.01,2013-08-28 01:38:00,
2013-08-27 21:43:00,75.7,73.2,29.92,North,360,0.0,1.0,92,0.00,,---,0.00,VWS V13.01,2013-08-28 01:43:00,
2013-08-27 21:44:00,75.6,73.1,29.92,North,5,0.0,1.0,92,0.00,,---,0.00,VWS V13.01,2013-08-28 01:44:00,
2013-08-27 21:48:00,75.6,73.1,29.92,North,5,0.0,1.0,92,0.00,,---,0.00,VWS V13.01,2013-08-28 01:48:00,
2013-08-27 21:49:00,75.6,73.1,29.92,North,5,0.0,1.0,92,0.00,,---,0.00,VWS V13.01,2013-08-28 01:49:00,
2013-08-27 21:53:00,75.4,72.9,29.92,North,5,0.0,1.0,92,0.00,,---,0.00,VWS V13.01,2013-08-28 01:53:00,
2013-08-27 21:54:00,75.4,72.9,29.92,North,5,0.0,1.0,92,0.00,,---,0.00,VWS V13.01,2013-08-28 01:54:00,
2013-08-27 21:58:00,75.2,72.7,29.92,North,360,0.0,1.0,92,0.00,,---,0.00,VWS V13.01,2013-08-28 01:58:00,
2013-08-27 21:59:00,75.2,72.7,29.92,North,360,0.0,1.0,92,0.00,,---,0.00,VWS V13.01,2013-08-28 01:59:00,
2013-08-27 22:03:00,75.2,73.0,29.92,North,5,0.0,0.0,93,0.00,,---,0.00,VWS V13.01,2013-08-28 02:03:00,
2013-08-27 22:04:00,75.2,73.0,29.93,North,5,0.0,0.0,93,0.00,,---,0.00,VWS V13.01,2013-08-28 02:04:00,
2013-08-27 22:08:00,75.1,72.9,29.93,North,5,0.0,0.0,93,0.00,,---,0.00,VWS V13.01,2013-08-28 02:08:00,
2013-08-27 22:09:00,75.1,72.9,29.93,North,5,0.0,0.0,93,0.00,,---,0.00,VWS V13.01,2013-08-28 02:09:00,
2013-08-27 22:13:00,75.0,72.8,29.93,North,360,0.0,0.0,93,0.00,,---,0.00,VWS V13.01,2013-08-28 02:13:00,
2013-08-27 22:14:00,75.0,72.8,29.93,North,5,0.0,0.0,93,0.00,,---,0.00,VWS V13.01,2013-08-28 02:14:00,
2013-08-27 22:19:00,74.9,72.7,29.93,North,5,0.0,0.0,93,0.00,,---,0.00,VWS V13.01,2013-08-28 02:19:00,
2013-08-27 22:20:00,74.8,72.6,29.93,North,360,0.0,0.0,93,0.00,,---,0.00,VWS V13.01,2013-08-28 02:20:00,
2013-08-27 22:24:00,74.8,72.6,29.93,North,360,0.0,0.0,93,0.00,,---,0.00,VWS V13.01,2013-08-28 02:24:00,
2013-08-27 22:25:00,74.7,72.6,29.93,North,360,0.0,0.0,93,0.00,,---,0.00,VWS V13.01,2013-08-28 02:25:00,
2013-08-27 22:29:00,74.7,72.9,29.93,North,5,0.0,0.0,94,0.00,,---,0.00,VWS V13.01,2013-08-28 02:29:00,
2013-08-27 22:30:00,74.7,72.9,29.93,North,5,0.0,0.0,94,0.00,,---,0.00,VWS V13.01,2013-08-28 02:30:00,
2013-08-27 22:34:00,74.6,72.8,29.94,North,5,0.0,0.0,94,0.00,,---,0.00,VWS V13.01,2013-08-28 02:34:00,
2013-08-27 22:35:00,74.5,72.7,29.94,North,5,0.0,0.0,94,0.00,,---,0.00,VWS V13.01,2013-08-28 02:35:00,
2013-08-27 22:39:00,74.5,72.7,29.94,North,360,0.0,0.0,94,0.00,,---,0.00,VWS V13.01,2013-08-28 02:39:00,
2013-08-27 22:40:00,74.5,72.7,29.93,North,5,0.0,0.0,94,0.00,,---,0.00,VWS V13.01,2013-08-28 02:40:00,
2013-08-27 22:44:00,74.4,72.6,29.93,North,5,0.0,0.0,94,0.00,,---,0.00,VWS V13.01,2013-08-28 02:44:00,
2013-08-27 22:45:00,74.4,72.6,29.93,North,5,0.0,0.0,94,0.00,,---,0.00,VWS V13.01,2013-08-28 02:45:00,
2013-08-27 22:46:00,74.4,72.6,29.93,North,360,0.0,0.0,94,0.00,,---,0.00,VWS V13.01,2013-08-28 02:46:00,
2013-08-27 22:49:00,74.4,72.9,29.94,North,5,0.0,0.0,95,0.00,,---,0.00,VWS V13.01,2013-08-28 02:49:00,
2013-08-27 22:50:00,74.4,72.9,29.94,North,5,0.0,0.0,95,0.00,,---,0.00,VWS V13.01,2013-08-28 02:50:00,
2013-08-27 22:51:00,74.3,72.8,29.94,North,5,0.0,0.0,95,0.00,,---,0.00,VWS V13.01,2013-08-28 02:51:00,
2013-08-27 22:55:00,74.2,72.7,29.94,North,5,0.0,0.0,95,0.00,,---,0.00,VWS V13.01,2013-08-28 02:55:00,
2013-08-27 22:56:00,74.2,72.7,29.94,North,360,0.0,0.0,95,0.00,,---,0.00,VWS V13.01,2013-08-28 02:56:00,
2013-08-27 23:00:00,74.2,72.7,29.94,North,5,0.0,0.0,95,0.00,,---,0.00,VWS V13.01,2013-08-28 03:00:00,
2013-08-27 23:01:00,74.2,72.7,29.94,North,360,0.0,0.0,95,0.00,,---,0.00,VWS V13.01,2013-08-28 03:01:00,
2013-08-27 23:05:00,74.2,72.7,29.94,North,360,0.0,0.0,95,0.00,,---,0.00,VWS V13.01,2013-08-28 03:05:00,
2013-08-27 23:06:00,74.1,72.6,29.94,North,5,0.0,0.0,95,0.00,,---,0.00,VWS V13.01,2013-08-28 03:06:00,
2013-08-27 23:10:00,74.1,72.6,29.94,North,360,0.0,0.0,95,0.00,,---,0.00,VWS V13.01,2013-08-28 03:10:00,
2013-08-27 23:11:00,74.1,72.6,29.94,North,5,0.0,0.0,95,0.00,,---,0.00,VWS V13.01,2013-08-28 03:11:00,
2013-08-27 23:15:00,74.2,72.7,29.94,North,5,0.0,0.0,95,0.00,,---,0.00,VWS V13.01,2013-08-28 03:15:00,
2013-08-27 23:16:00,74.2,72.7,29.94,North,5,0.0,0.0,95,0.00,,---,0.00,VWS V13.01,2013-08-28 03:16:00,
2013-08-27 23:21:00,74.3,72.8,29.94,North,360,0.0,0.0,95,0.00,,---,0.00,VWS V13.01,2013-08-28 03:21:00,
2013-08-27 23:22:00,74.2,72.7,29.94,North,5,0.0,0.0,95,0.00,,---,0.00,VWS V13.01,2013-08-28 03:22:00,
2013-08-27 23:26:00,74.3,72.8,29.94,North,5,0.0,0.0,95,0.00,,---,0.00,VWS V13.01,2013-08-28 03:26:00,
2013-08-27 23:27:00,74.2,72.7,29.94,North,5,0.0,0.0,95,0.00,,---,0.00,VWS V13.01,2013-08-28 03:27:00,
2013-08-27 23:31:00,74.3,72.8,29.94,North,360,0.0,0.0,95,0.00,,---,0.00,VWS V13.01,2013-08-28 03:31:00,
2013-08-27 23:32:00,74.3,72.8,29.94,North,360,0.0,0.0,95,0.00,,---,0.00,VWS V13.01,2013-08-28 03:32:00,
2013-08-27 23:36:00,74.3,72.8,29.94,North,5,0.0,0.0,95,0.00,,---,0.00,VWS V13.01,2013-08-28 03:36:00,
2013-08-27 23:37:00,74.3,72.8,29.94,North,5,0.0,0.0,95,0.00,,---,0.00,VWS V13.01,2013-08-28 03:37:00,
2013-08-27 23:41:00,74.2,72.7,29.94,North,360,0.0,0.0,95,0.00,,---,0.00,VWS V13.01,2013-08-28 03:41:00,
2013-08-27 23:42:00,74.2,72.7,29.94,North,360,0.0,0.0,95,0.00,,---,0.00,VWS V13.01,2013-08-28 03:42:00,
2013-08-27 23:46:00,74.1,72.6,29.94,North,5,0.0,0.0,95,0.00,,---,0.00,VWS V13.01,2013-08-28 03:46:00,
2013-08-27 23:47:00,74.1,72.6,29.94,North,5,0.0,0.0,95,0.00,,---,0.00,VWS V13.01,2013-08-28 03:47:00,
2013-08-27 23:51:00,74.0,72.5,29.94,North,5,0.0,0.0,95,0.00,,---,0.00,VWS V13.01,2013-08-28 03:51:00,
2013-08-27 23:52:00,74.0,72.5,29.94,North,5,0.0,0.0,95,0.00,,---,0.00,VWS V13.01,2013-08-28 03:52:00,
2013-08-27 23:53:00,73.9,72.4,29.94,North,5,0.0,0.0,95,0.00,,---,0.00,VWS V13.01,2013-08-28 03:53:00,
2013-08-27 23:56:00,73.9,72.7,29.93,North,5,0.0,0.0,96,0.00,,---,0.00,VWS V13.01,2013-08-28 03:56:00,
2013-08-27 23:57:00,73.9,72.7,29.93,North,5,0.0,0.0,96,0.00,,---,0.00,VWS V13.01,2013-08-28 03:57:00,
2013-08-27 23:58:00,73.9,72.7,29.93,North,5,0.0,0.0,96,0.00,,---,0.00,VWS V13.01,2013-08-28 03:58:00,